RWZ9901 VVCR-UUDD

Flight info

Callsign RWZ9901
Flight time 10h 35m
Altitude 35000
Route N0490F350 KARAN W2 PCA G221 WL V41 RUNEG W169 WUY R339 BSE V86 QNX A581 BIPIP W179 RIRKI W232 WFX W179 OMBON W195 MORIT Y478 NOPUS R366 AKTAS A357 ABESA R234 OKETI L158 APTAR T787 URAGO
Aircraft B772/H-VGDW/C

Departure

Time 2026-04-25 07:16
Airport Cam Ranh International Airport / Cam Ranh Air Base (VVCR)

Arrival

Time 2026-04-25 17:52
Airport Domodedovo International Airport (UUDD)
Time Latitude Longitude Altitude Speed Heading
2026-04-25 06:58 12.00899 109.21734 48 ft 0 kts 290°
2026-04-25 07:07 12.00899 109.21735 51 ft 0 kts 290°
2026-04-25 07:08 12.00898 109.21736 51 ft 0 kts 290°
2026-04-25 07:09 12.00895 109.21744 47 ft 3 kts 290°
2026-04-25 07:09 12.00889 109.21762 48 ft 3 kts 290°
2026-04-25 07:09 12.00883 109.21780 44 ft 3 kts 290°
2026-04-25 07:09 12.00877 109.21795 44 ft 0 kts 290°
2026-04-25 07:10 12.00874 109.21786 44 ft 3 kts 245°
2026-04-25 07:11 12.00831 109.21785 45 ft 12 kts 171°
2026-04-25 07:11 12.00745 109.21796 50 ft 14 kts 179°
2026-04-25 07:11 12.00643 109.21794 50 ft 15 kts 186°
2026-04-25 07:11 12.00530 109.21767 49 ft 18 kts 198°
2026-04-25 07:12 12.00412 109.21726 48 ft 18 kts 199°
2026-04-25 07:12 12.00163 109.21641 46 ft 14 kts 190°
2026-04-25 07:12 12.00098 109.21701 46 ft 14 kts 109°
2026-04-25 07:13 12.00048 109.21774 46 ft 11 kts 166°
2026-04-25 07:13 11.99935 109.21733 45 ft 23 kts 198°
2026-04-25 07:13 11.99773 109.21682 43 ft 25 kts 198°
2026-04-25 07:13 11.99603 109.21623 41 ft 28 kts 198°
2026-04-25 07:14 11.99419 109.21562 40 ft 28 kts 198°
2026-04-25 07:14 11.99236 109.21498 38 ft 29 kts 200°
2026-04-25 07:14 11.99039 109.21429 36 ft 30 kts 198°
2026-04-25 07:14 11.98906 109.21383 35 ft 30 kts 199°
2026-04-25 07:15 11.98714 109.21315 34 ft 25 kts 199°
2026-04-25 07:15 11.98616 109.21283 33 ft 15 kts 185°
2026-04-25 07:15 11.98550 109.21336 32 ft 13 kts 106°
2026-04-25 07:15 11.98541 109.21432 32 ft 15 kts 86°
2026-04-25 07:16 11.98633 109.21516 32 ft 35 kts 23°
2026-04-25 07:16 11.99101 109.21682 35 ft 105 kts 19°
2026-04-25 07:16 11.99989 109.21989 98 ft 157 kts 21°
2026-04-25 07:16 12.01021 109.22340 789 ft 155 kts 23°
2026-04-25 07:17 12.02041 109.22705 1573 ft 153 kts 22°
2026-04-25 07:17 12.03079 109.23075 2097 ft 167 kts 22°
2026-04-25 07:17 12.04261 109.23498 2273 ft 192 kts 21°
2026-04-25 07:17 12.05599 109.23973 2452 ft 216 kts 21°
2026-04-25 07:18 12.07093 109.24503 2683 ft 240 kts 20°
2026-04-25 07:18 12.08723 109.25079 3101 ft 256 kts 20°
2026-04-25 07:18 12.10413 109.25674 3802 ft 260 kts 19°
2026-04-25 07:18 12.12125 109.26277 4594 ft 260 kts 19°
2026-04-25 07:19 12.13826 109.26876 5308 ft 263 kts 18°
2026-04-25 07:19 12.15564 109.27479 5980 ft 264 kts 15°
2026-04-25 07:19 12.17396 109.27601 6488 ft 270 kts 352°
2026-04-25 07:19 12.19226 109.27064 6980 ft 277 kts 334°
2026-04-25 07:20 12.20850 109.26002 7466 ft 281 kts 327°
2026-04-25 07:20 12.22480 109.24842 8005 ft 288 kts 327°
2026-04-25 07:20 12.24126 109.23660 8644 ft 291 kts 327°
2026-04-25 07:20 12.25793 109.22460 9232 ft 295 kts 327°
2026-04-25 07:21 12.27487 109.21242 9777 ft 300 kts 327°
2026-04-25 07:21 12.29212 109.20007 10229 ft 307 kts 328°
2026-04-25 07:21 12.31162 109.18989 10361 ft 325 kts 341°
2026-04-25 07:21 12.33400 109.18357 10509 ft 344 kts 353°
2026-04-25 07:22 12.35852 109.18080 10696 ft 365 kts 357°
2026-04-25 07:22 12.38428 109.17918 11232 ft 376 kts 358°
2026-04-25 07:22 12.41066 109.17761 11933 ft 383 kts 357°
2026-04-25 07:22 12.43738 109.17577 12832 ft 386 kts 356°
2026-04-25 07:23 12.46430 109.17365 13663 ft 391 kts 355°
2026-04-25 07:23 12.49161 109.17131 14380 ft 397 kts 354°
2026-04-25 07:23 12.51928 109.16883 15142 ft 402 kts 354°
2026-04-25 07:23 12.54737 109.16627 15900 ft 407 kts 354°
2026-04-25 07:24 12.57577 109.16367 16641 ft 413 kts 353°
2026-04-25 07:24 12.60463 109.16103 17386 ft 419 kts 353°
2026-04-25 07:24 12.63391 109.15837 18149 ft 425 kts 353°
2026-04-25 07:24 12.66355 109.15569 18816 ft 430 kts 353°
2026-04-25 07:25 12.69350 109.15304 19552 ft 433 kts 354°
2026-04-25 07:25 12.72359 109.15042 20322 ft 435 kts 354°
2026-04-25 07:25 12.75389 109.14779 21040 ft 439 kts 353°
2026-04-25 07:25 12.78440 109.14514 21750 ft 442 kts 354°
2026-04-25 07:26 12.81516 109.14247 22495 ft 444 kts 354°
2026-04-25 07:26 12.84614 109.13976 23094 ft 449 kts 354°
2026-04-25 07:26 12.87749 109.13701 23588 ft 455 kts 354°
2026-04-25 07:26 12.90873 109.13428 24139 ft 457 kts 354°
2026-04-25 07:27 12.94083 109.13147 24734 ft 457 kts 354°
2026-04-25 07:27 12.97258 109.12868 25300 ft 458 kts 354°
2026-04-25 07:27 13.00438 109.12589 25787 ft 462 kts 355°
2026-04-25 07:27 13.03609 109.12312 26311 ft 462 kts 355°
2026-04-25 07:28 13.06811 109.12031 26929 ft 461 kts 355°
2026-04-25 07:28 13.10022 109.11749 27270 ft 466 kts 355°
2026-04-25 07:28 13.13262 109.11465 27709 ft 469 kts 354°
2026-04-25 07:28 13.16528 109.11179 28178 ft 470 kts 354°
2026-04-25 07:29 13.19784 109.10893 28698 ft 471 kts 354°
2026-04-25 07:29 13.23069 109.10604 28922 ft 476 kts 355°
2026-04-25 07:29 13.26380 109.10313 29242 ft 481 kts 355°
2026-04-25 07:29 13.29728 109.10019 29532 ft 483 kts 355°
2026-04-25 07:30 13.33080 109.09727 29889 ft 485 kts 355°
2026-04-25 07:30 13.36452 109.09436 30081 ft 488 kts 355°
2026-04-25 07:30 13.39840 109.09144 30335 ft 490 kts 355°
2026-04-25 07:30 13.43252 109.08850 30535 ft 491 kts 355°
2026-04-25 07:31 13.46650 109.08556 30980 ft 487 kts 354°
2026-04-25 07:31 13.50021 109.08265 31316 ft 487 kts 354°
2026-04-25 07:31 13.53414 109.07971 31518 ft 490 kts 354°
2026-04-25 07:31 13.56822 109.07675 31735 ft 491 kts 354°
2026-04-25 07:32 13.60222 109.07380 32100 ft 489 kts 354°
2026-04-25 07:32 13.63562 109.07091 32484 ft 487 kts 354°
2026-04-25 07:32 13.66946 109.06797 32714 ft 489 kts 354°
2026-04-25 07:32 13.70343 109.06503 32963 ft 489 kts 353°
2026-04-25 07:33 13.73726 109.06209 33364 ft 487 kts 353°
2026-04-25 07:33 13.77097 109.05917 33691 ft 486 kts 354°
2026-04-25 07:33 13.80474 109.05624 33905 ft 488 kts 354°
2026-04-25 07:33 13.83862 109.05329 34114 ft 489 kts 353°
2026-04-25 07:34 13.87248 109.05035 34368 ft 488 kts 353°
2026-04-25 07:34 13.90628 109.04741 34662 ft 487 kts 353°
2026-04-25 07:34 13.94009 109.04477 34852 ft 489 kts 355°
2026-04-25 07:34 13.97417 109.04465 34899 ft 492 kts
2026-04-25 07:35 14.04200 109.05229 34930 ft 489 kts
2026-04-25 07:35 14.10960 109.06111 34934 ft 489 kts
2026-04-25 07:36 14.17717 109.06964 34935 ft 490 kts
2026-04-25 07:36 14.24509 109.07791 34937 ft 492 kts
2026-04-25 07:37 14.31329 109.08615 34942 ft 494 kts
2026-04-25 07:37 14.38117 109.09437 34935 ft 495 kts
2026-04-25 07:38 14.44960 109.10267 34945 ft 495 kts
2026-04-25 07:38 14.51793 109.11096 34935 ft 494 kts
2026-04-25 07:39 14.58624 109.11927 34936 ft 494 kts
2026-04-25 07:39 14.65438 109.12756 34928 ft 492 kts
2026-04-25 07:40 14.72231 109.13584 34927 ft 491 kts
2026-04-25 07:40 14.79011 109.14409 34929 ft 490 kts
2026-04-25 07:41 14.85802 109.15237 34932 ft 491 kts
2026-04-25 07:41 14.92600 109.16065 34930 ft 492 kts
2026-04-25 07:42 14.99409 109.16896 34929 ft 493 kts
2026-04-25 07:42 15.06224 109.17728 34930 ft 494 kts
2026-04-25 07:43 15.13045 109.18561 34929 ft 494 kts
2026-04-25 07:43 15.19826 109.19391 34933 ft 493 kts
2026-04-25 07:44 15.26629 109.20223 34927 ft 492 kts
2026-04-25 07:44 15.33424 109.21055 34926 ft 491 kts
2026-04-25 07:45 15.40205 109.21885 34927 ft 491 kts
2026-04-25 07:45 15.46985 109.22716 34930 ft 491 kts
2026-04-25 07:46 15.53759 109.23548 34938 ft 490 kts
2026-04-25 07:46 15.60526 109.24378 34933 ft 489 kts
2026-04-25 07:47 15.67283 109.25206 34931 ft 489 kts
2026-04-25 07:47 15.74039 109.26033 34932 ft 489 kts
2026-04-25 07:48 15.80795 109.26861 34934 ft 489 kts
2026-04-25 07:48 15.87556 109.27690 34936 ft 489 kts
2026-04-25 07:49 15.94317 109.28520 34932 ft 489 kts
2026-04-25 07:49 16.01084 109.29351 34936 ft 489 kts
2026-04-25 07:50 16.07846 109.30183 34934 ft 489 kts
2026-04-25 07:50 16.14612 109.31015 34943 ft 489 kts
2026-04-25 07:51 16.21378 109.31849 34935 ft 490 kts
2026-04-25 07:51 16.28151 109.32682 34933 ft 490 kts
2026-04-25 07:52 16.34922 109.33517 34938 ft 490 kts
2026-04-25 07:52 16.41694 109.34353 34938 ft 490 kts
2026-04-25 07:53 16.48464 109.35189 34947 ft 490 kts
2026-04-25 07:53 16.55189 109.36020 34931 ft 490 kts
2026-04-25 07:54 16.61962 109.36857 34933 ft 490 kts
2026-04-25 07:54 16.68726 109.37694 34932 ft 490 kts
2026-04-25 07:55 16.75499 109.38533 34933 ft 490 kts
2026-04-25 07:55 16.82257 109.38907 34948 ft 482 kts 351°
2026-04-25 07:56 16.88775 109.37724 34934 ft 471 kts 338°
2026-04-25 07:56 16.94960 109.35560 34940 ft 468 kts 336°
2026-04-25 07:57 17.01073 109.33377 34935 ft 468 kts 337°
2026-04-25 07:57 17.07251 109.31214 34935 ft 468 kts 337°
2026-04-25 07:58 17.13437 109.29069 34940 ft 469 kts 337°
2026-04-25 07:58 17.19628 109.26926 34942 ft 468 kts 337°
2026-04-25 07:59 17.25799 109.24786 34937 ft 467 kts 337°
2026-04-25 07:59 17.31955 109.22647 34936 ft 466 kts 337°
2026-04-25 08:00 17.38112 109.20507 34939 ft 465 kts 336°
2026-04-25 08:00 17.44255 109.18370 34940 ft 465 kts 337°
2026-04-25 08:01 17.49494 109.16947 34948 ft 472 kts 345°
2026-04-25 08:01 17.56082 109.16278 34942 ft 481 kts 354°
2026-04-25 08:02 17.62789 109.16430 34937 ft 483 kts 355°
2026-04-25 08:02 17.69509 109.16541 34939 ft 483 kts 355°
2026-04-25 08:03 17.76229 109.16619 34938 ft 483 kts 355°
2026-04-25 08:03 17.82951 109.16698 34937 ft 483 kts 355°
2026-04-25 08:04 17.89672 109.16782 34936 ft 483 kts 355°
2026-04-25 08:04 17.96389 109.16866 34937 ft 483 kts 355°
2026-04-25 08:05 18.03094 109.16950 34938 ft 482 kts 355°
2026-04-25 08:05 18.09805 109.17034 34940 ft 482 kts 355°
2026-04-25 08:06 18.16503 109.17118 34950 ft 482 kts 354°
2026-04-25 08:06 18.23208 109.17202 34940 ft 482 kts 354°
2026-04-25 08:07 18.29854 109.18169 34955 ft 499 kts 17°
2026-04-25 08:07 18.32913 109.19977 34957 ft 513 kts 32°
2026-04-25 08:07 18.35481 109.22638 34968 ft 524 kts 46°
2026-04-25 08:08 18.39924 109.28776 34968 ft 529 kts 47°
2026-04-25 08:08 18.44594 109.34741 34972 ft 522 kts 38°
2026-04-25 08:09 18.47472 109.36975 34966 ft 508 kts 21°
2026-04-25 08:09 18.50714 109.38290 34975 ft 495 kts
2026-04-25 08:09 18.57379 109.38777 34954 ft 473 kts 343°
2026-04-25 08:10 18.63785 109.37367 34973 ft 472 kts 342°
2026-04-25 08:10 18.70244 109.35974 34967 ft 473 kts 343°
2026-04-25 08:11 18.76665 109.34656 34984 ft 470 kts 343°
2026-04-25 08:11 18.83127 109.33344 34978 ft 475 kts 343°
2026-04-25 08:12 18.89635 109.32024 34956 ft 477 kts 343°
2026-04-25 08:12 18.96153 109.30701 34973 ft 476 kts 343°
2026-04-25 08:13 19.02613 109.29389 34953 ft 475 kts 343°
2026-04-25 08:14 19.12309 109.27415 34966 ft 471 kts 342°
2026-04-25 08:14 19.18731 109.26103 34952 ft 469 kts 342°
2026-04-25 08:15 19.25128 109.24796 34953 ft 468 kts 342°
2026-04-25 08:15 19.31532 109.23488 34953 ft 469 kts 342°
2026-04-25 08:16 19.37942 109.22177 34946 ft 470 kts 342°
2026-04-25 08:16 19.44362 109.20864 34963 ft 469 kts 342°
2026-04-25 08:17 19.50524 109.18983 34949 ft 453 kts 328°
2026-04-25 08:17 19.55799 109.15516 34947 ft 442 kts 315°
2026-04-25 08:18 19.60207 109.11065 34948 ft 438 kts 311°
2026-04-25 08:18 19.64566 109.06530 34947 ft 440 kts 311°
2026-04-25 08:19 19.68934 109.02024 34946 ft 441 kts 312°
2026-04-25 08:19 19.73290 108.97560 34946 ft 442 kts 312°
2026-04-25 08:20 19.77712 108.93034 34967 ft 441 kts 312°
2026-04-25 08:20 19.82126 108.88515 34951 ft 439 kts 311°
2026-04-25 08:21 19.86516 108.84015 34947 ft 438 kts 311°
2026-04-25 08:21 19.90891 108.79525 34947 ft 437 kts 311°
2026-04-25 08:22 19.95264 108.75033 34944 ft 437 kts 311°
2026-04-25 08:22 19.99636 108.70538 34947 ft 437 kts 311°
2026-04-25 08:23 20.04007 108.66042 34949 ft 438 kts 311°
2026-04-25 08:23 20.08392 108.61527 34949 ft 439 kts 311°
2026-04-25 08:24 20.12778 108.57008 34951 ft 439 kts 311°
2026-04-25 08:24 20.17161 108.52490 34961 ft 438 kts 311°
2026-04-25 08:25 20.21503 108.48008 34951 ft 438 kts 311°
2026-04-25 08:25 20.25871 108.43496 34955 ft 437 kts 311°
2026-04-25 08:26 20.30228 108.38991 34955 ft 436 kts 311°
2026-04-25 08:26 20.34568 108.34501 34955 ft 434 kts 311°
2026-04-25 08:27 20.38899 108.30015 34953 ft 434 kts 311°
2026-04-25 08:27 20.43224 108.25533 34957 ft 433 kts 311°
2026-04-25 08:28 20.47771 108.21325 34950 ft 441 kts 325°
2026-04-25 08:28 20.50647 108.20073 34976 ft 454 kts 336°
2026-04-25 08:28 20.53774 108.19378 34964 ft 465 kts 346°
2026-04-25 08:28 20.57059 108.19425 34961 ft 479 kts 359°
2026-04-25 08:29 20.60369 108.19982 34960 ft 484 kts
2026-04-25 08:29 20.66984 108.21251 34961 ft 488 kts
2026-04-25 08:30 20.73680 108.22463 34960 ft 488 kts
2026-04-25 08:30 20.80384 108.23597 34965 ft 487 kts
2026-04-25 08:31 20.87076 108.24713 34962 ft 486 kts
2026-04-25 08:31 20.93746 108.25832 34959 ft 485 kts
2026-04-25 08:32 21.00420 108.26954 35199 ft 486 kts
2026-04-25 08:32 21.03763 108.27511 35440 ft 486 kts
2026-04-25 08:32 21.07108 108.28068 35764 ft 484 kts 360°
2026-04-25 08:32 21.10425 108.28621 36120 ft 482 kts 360°
2026-04-25 08:33 21.13735 108.29172 36471 ft 480 kts 359°
2026-04-25 08:33 21.17032 108.29722 36793 ft 479 kts 359°
2026-04-25 08:33 21.20325 108.30143 37072 ft 472 kts 354°
2026-04-25 08:33 21.23588 108.30250 37349 ft 466 kts 349°
2026-04-25 08:34 21.26789 108.30025 37638 ft 458 kts 345°
2026-04-25 08:34 21.29949 108.29660 37879 ft 458 kts 344°
2026-04-25 08:34 21.33124 108.29276 37920 ft 460 kts 344°
2026-04-25 08:35 21.39492 108.28517 37954 ft 458 kts 345°
2026-04-25 08:35 21.45798 108.27797 37963 ft 454 kts 345°
2026-04-25 08:36 21.52016 108.27097 37963 ft 451 kts 344°
2026-04-25 08:36 21.58250 108.26394 37966 ft 450 kts 344°
2026-04-25 08:37 21.64490 108.25688 37959 ft 451 kts 345°
2026-04-25 08:37 21.70745 108.24979 37963 ft 453 kts 345°
2026-04-25 08:38 21.77018 108.24272 37991 ft 454 kts 345°
2026-04-25 08:38 21.83294 108.23564 37971 ft 453 kts 345°
2026-04-25 08:39 21.89550 108.22859 37943 ft 450 kts 345°
2026-04-25 08:39 21.95753 108.22158 37977 ft 447 kts 344°
2026-04-25 08:40 22.01899 108.21467 37955 ft 443 kts 344°
2026-04-25 08:40 22.08005 108.20770 38032 ft 446 kts 345°
2026-04-25 08:41 22.14247 108.20046 37986 ft 450 kts 345°
2026-04-25 08:41 22.20463 108.19341 37981 ft 454 kts 345°
2026-04-25 08:42 22.26757 108.18631 37976 ft 455 kts 345°
2026-04-25 08:42 22.33052 108.17917 37980 ft 454 kts 345°
2026-04-25 08:43 22.39309 108.17205 37998 ft 451 kts 345°
2026-04-25 08:43 22.45552 108.16492 37980 ft 450 kts 345°
2026-04-25 08:44 22.51764 108.15782 37966 ft 449 kts 345°
2026-04-25 08:44 22.54824 108.15311 37961 ft 438 kts 337°
2026-04-25 08:44 22.57636 108.14206 37976 ft 425 kts 327°
2026-04-25 08:45 22.62496 108.10713 37960 ft 415 kts 310°
2026-04-25 08:45 22.66438 108.06177 37969 ft 419 kts 308°
2026-04-25 08:46 22.70435 108.01517 37974 ft 424 kts 309°
2026-04-25 08:46 22.74444 107.96894 37976 ft 426 kts 309°
2026-04-25 08:47 22.78467 107.92287 37971 ft 417 kts 309°
2026-04-25 08:47 22.82465 107.87702 37975 ft 418 kts 309°
2026-04-25 08:48 22.86462 107.83115 37972 ft 419 kts 309°
2026-04-25 08:48 22.90467 107.78515 37974 ft 419 kts 309°
2026-04-25 08:49 22.94466 107.73916 37988 ft 419 kts 309°
2026-04-25 08:49 22.97788 107.70091 37977 ft 420 kts 309°
2026-04-25 08:50 23.01790 107.65482 37977 ft 420 kts 309°
2026-04-25 08:50 23.05786 107.60880 37980 ft 418 kts 309°
2026-04-25 08:51 23.09784 107.56276 37980 ft 420 kts 309°
2026-04-25 08:51 23.13792 107.51653 37966 ft 421 kts 309°
2026-04-25 08:52 23.17806 107.47015 37968 ft 422 kts 309°
2026-04-25 08:52 23.21830 107.42368 37998 ft 423 kts 309°
2026-04-25 08:53 23.25860 107.37705 37968 ft 424 kts 309°
2026-04-25 08:53 23.29896 107.33031 37968 ft 424 kts 309°
2026-04-25 08:54 23.33929 107.28356 37976 ft 423 kts 309°
2026-04-25 08:54 23.37958 107.23681 37961 ft 423 kts 309°
2026-04-25 08:55 23.41951 107.19045 38021 ft 421 kts 308°
2026-04-25 08:55 23.45955 107.14399 37981 ft 420 kts 308°
2026-04-25 08:56 23.49937 107.09761 37979 ft 418 kts 308°
2026-04-25 08:56 23.53914 107.05133 37978 ft 418 kts 308°
2026-04-25 08:57 23.57885 107.00505 37970 ft 418 kts 308°
2026-04-25 08:57 23.61794 106.95940 37969 ft 417 kts 308°
2026-04-25 08:58 23.65757 106.91312 37969 ft 418 kts 308°
2026-04-25 08:58 23.69741 106.86658 37977 ft 420 kts 308°
2026-04-25 08:59 23.73729 106.81993 37965 ft 420 kts 308°
2026-04-25 08:59 23.77686 106.77357 38000 ft 420 kts 308°
2026-04-25 09:00 23.81679 106.72675 37981 ft 421 kts 308°
2026-04-25 09:00 23.85672 106.67991 37968 ft 421 kts 308°
2026-04-25 09:01 23.89748 106.63409 37973 ft 423 kts 316°
2026-04-25 09:01 23.94937 106.60156 37979 ft 437 kts 329°
2026-04-25 09:01 23.97840 106.59077 37971 ft 447 kts 340°
2026-04-25 09:02 24.00920 106.58460 37977 ft 451 kts 342°
2026-04-25 09:02 24.07136 106.57434 37964 ft 452 kts 343°
2026-04-25 09:03 24.13360 106.56403 37990 ft 451 kts 343°
2026-04-25 09:03 24.19554 106.55323 37991 ft 451 kts 343°
2026-04-25 09:04 24.25750 106.54214 37982 ft 451 kts 343°
2026-04-25 09:04 24.31909 106.53105 37991 ft 452 kts 343°
2026-04-25 09:05 24.38113 106.51989 37999 ft 452 kts 343°
2026-04-25 09:05 24.44319 106.50871 38005 ft 452 kts 343°
2026-04-25 09:06 24.50534 106.49751 38013 ft 453 kts 343°
2026-04-25 09:06 24.56753 106.48629 38016 ft 453 kts 343°
2026-04-25 09:07 24.62976 106.47506 38010 ft 453 kts 343°
2026-04-25 09:07 24.69198 106.46382 38018 ft 453 kts 343°
2026-04-25 09:08 24.75423 106.45254 38023 ft 453 kts 344°
2026-04-25 09:08 24.81652 106.44127 38019 ft 454 kts 344°
2026-04-25 09:09 24.87888 106.42998 37996 ft 455 kts 345°
2026-04-25 09:09 24.94143 106.41864 37984 ft 455 kts 345°
2026-04-25 09:10 25.00392 106.40731 37992 ft 456 kts 345°
2026-04-25 09:10 25.06642 106.39593 38011 ft 455 kts 345°
2026-04-25 09:11 25.16023 106.37881 38017 ft 458 kts 345°
2026-04-25 09:11 25.22321 106.36733 38010 ft 459 kts 345°
2026-04-25 09:12 25.28631 106.35578 38010 ft 459 kts 345°
2026-04-25 09:12 25.34925 106.34432 38023 ft 458 kts 345°
2026-04-25 09:13 25.41237 106.33277 37997 ft 462 kts 345°
2026-04-25 09:13 25.47574 106.32115 38020 ft 462 kts 345°
2026-04-25 09:14 25.53911 106.30954 38027 ft 461 kts 345°
2026-04-25 09:14 25.60238 106.29793 38024 ft 461 kts 345°
2026-04-25 09:15 25.66560 106.28630 38041 ft 460 kts 345°
2026-04-25 09:15 25.72880 106.27467 38029 ft 460 kts 345°
2026-04-25 09:16 25.79189 106.26308 38031 ft 459 kts 345°
2026-04-25 09:16 25.85486 106.25145 38038 ft 459 kts 345°
2026-04-25 09:17 25.94905 106.23405 38059 ft 459 kts 345°
2026-04-25 09:18 26.01199 106.22238 38049 ft 459 kts 345°
2026-04-25 09:18 26.07506 106.21074 38044 ft 459 kts 345°
2026-04-25 09:19 26.13807 106.19908 38042 ft 459 kts 345°
2026-04-25 09:19 26.20103 106.18739 38035 ft 459 kts 345°
2026-04-25 09:20 26.26401 106.17569 38053 ft 459 kts 345°
2026-04-25 09:20 26.32697 106.16399 38044 ft 459 kts 345°
2026-04-25 09:21 26.38992 106.15227 38038 ft 458 kts 345°
2026-04-25 09:21 26.45284 106.14054 38037 ft 458 kts 345°
2026-04-25 09:22 26.51581 106.12878 38032 ft 459 kts 345°
2026-04-25 09:22 26.57875 106.11701 38037 ft 458 kts 345°
2026-04-25 09:23 26.64156 106.10527 38028 ft 457 kts 345°
2026-04-25 09:23 26.70420 106.09353 38025 ft 456 kts 345°
2026-04-25 09:24 26.76676 106.08179 38027 ft 456 kts 345°
2026-04-25 09:24 26.82933 106.07004 38007 ft 456 kts 345°
2026-04-25 09:25 26.89175 106.05831 38018 ft 454 kts 344°
2026-04-25 09:25 26.95403 106.04658 38000 ft 452 kts 345°
2026-04-25 09:25 26.98564 106.04479 38001 ft 463 kts 360°
2026-04-25 09:26 27.01728 106.05333 38011 ft 479 kts 15°
2026-04-25 09:26 27.04689 106.07169 38007 ft 494 kts 30°
2026-04-25 09:26 27.07270 106.09780 37992 ft 508 kts 45°
2026-04-25 09:26 27.09176 106.13175 38006 ft 521 kts 60°
2026-04-25 09:27 27.10663 106.16886 37993 ft 522 kts 61°
2026-04-25 09:27 27.14312 106.23686 38008 ft 501 kts 36°
2026-04-25 09:27 27.17084 106.25933 37995 ft 485 kts 19°
2026-04-25 09:28 27.20198 106.27187 38003 ft 470 kts
2026-04-25 09:28 27.23408 106.27593 37991 ft 459 kts 353°
2026-04-25 09:28 27.26554 106.27307 37987 ft 451 kts 344°
2026-04-25 09:29 27.32461 106.25303 37993 ft 438 kts 326°
2026-04-25 09:29 27.34871 106.23299 37997 ft 427 kts 315°
2026-04-25 09:29 27.37091 106.21064 37995 ft 429 kts 314°
2026-04-25 09:30 27.41536 106.16540 37997 ft 433 kts 314°
2026-04-25 09:30 27.46067 106.12034 37991 ft 436 kts 315°
2026-04-25 09:31 27.50644 106.07546 37987 ft 437 kts 315°
2026-04-25 09:31 27.55238 106.03049 37964 ft 437 kts 315°
2026-04-25 09:32 27.59733 105.98643 37930 ft 434 kts 315°
2026-04-25 09:32 27.64285 105.94173 37954 ft 434 kts 315°
2026-04-25 09:33 27.68844 105.89686 37943 ft 434 kts 315°
2026-04-25 09:33 27.72650 105.84482 37959 ft 430 kts 300°
2026-04-25 09:34 27.75213 105.78406 37941 ft 430 kts 288°
2026-04-25 09:34 27.76949 105.71992 37940 ft 430 kts 287°
2026-04-25 09:35 27.78733 105.65536 37919 ft 430 kts 288°
2026-04-25 09:35 27.80709 105.59187 37907 ft 429 kts 293°
2026-04-25 09:36 27.83130 105.53024 37927 ft 429 kts 293°
2026-04-25 09:36 27.85150 105.47848 37914 ft 431 kts 293°
2026-04-25 09:37 27.87824 105.41849 37898 ft 433 kts 305°
2026-04-25 09:37 27.92139 105.37055 37898 ft 439 kts 320°
2026-04-25 09:38 27.97574 105.33776 37891 ft 445 kts 330°
2026-04-25 09:38 28.03186 105.30847 37866 ft 445 kts 330°
2026-04-25 09:39 28.08802 105.27840 37840 ft 447 kts 329°
2026-04-25 09:39 28.14401 105.24779 37878 ft 447 kts 329°
2026-04-25 09:40 28.22807 105.20160 37848 ft 447 kts 329°
2026-04-25 09:40 28.28392 105.17087 37836 ft 445 kts 329°
2026-04-25 09:41 28.33949 105.14026 37845 ft 443 kts 329°
2026-04-25 09:41 28.39490 105.10970 37839 ft 443 kts 329°
2026-04-25 09:42 28.45015 105.07921 37845 ft 441 kts 329°
2026-04-25 09:42 28.50529 105.04882 37849 ft 441 kts 329°
2026-04-25 09:43 28.56045 105.01841 37830 ft 440 kts 329°
2026-04-25 09:43 28.61476 104.98843 37835 ft 439 kts 329°
2026-04-25 09:44 28.66926 104.95828 37845 ft 438 kts 329°
2026-04-25 09:44 28.72417 104.92785 37857 ft 439 kts 329°
2026-04-25 09:45 28.77916 104.89736 37836 ft 440 kts 329°
2026-04-25 09:45 28.83425 104.86678 37844 ft 440 kts 329°
2026-04-25 09:46 28.88940 104.83614 37847 ft 441 kts 329°
2026-04-25 09:46 28.94459 104.80536 37850 ft 441 kts 329°
2026-04-25 09:47 28.99970 104.77449 37855 ft 441 kts 329°
2026-04-25 09:47 29.05470 104.74363 37854 ft 442 kts 329°
2026-04-25 09:48 29.10986 104.71267 37848 ft 442 kts 329°
2026-04-25 09:48 29.16502 104.68167 37856 ft 442 kts 329°
2026-04-25 09:49 29.22019 104.65063 37852 ft 441 kts 329°
2026-04-25 09:49 29.27560 104.62019 37865 ft 444 kts 333°
2026-04-25 09:50 29.33527 104.60022 37872 ft 450 kts 343°
2026-04-25 09:50 29.39737 104.59155 37863 ft 454 kts 350°
2026-04-25 09:51 29.46038 104.58688 37857 ft 453 kts 351°
2026-04-25 09:51 29.52328 104.58225 37871 ft 452 kts 350°
2026-04-25 09:52 29.58607 104.57725 37873 ft 452 kts 350°
2026-04-25 09:52 29.64895 104.57205 37862 ft 453 kts 350°
2026-04-25 09:53 29.71189 104.56682 37875 ft 453 kts 350°
2026-04-25 09:53 29.77479 104.56161 37865 ft 453 kts 350°
2026-04-25 09:54 29.83780 104.55637 37901 ft 455 kts 350°
2026-04-25 09:54 29.86947 104.55373 38139 ft 456 kts 349°
2026-04-25 09:54 29.90101 104.55112 38590 ft 452 kts 349°
2026-04-25 09:55 29.93225 104.54855 38905 ft 449 kts 349°
2026-04-25 09:55 29.96333 104.54598 39189 ft 447 kts 349°
2026-04-25 09:55 29.99398 104.54343 39417 ft 447 kts 349°
2026-04-25 09:55 30.02491 104.54084 39638 ft 447 kts 349°
2026-04-25 09:56 30.05592 104.53824 39780 ft 448 kts 349°
2026-04-25 09:56 30.08706 104.53563 39819 ft 449 kts 349°
2026-04-25 09:56 30.14940 104.53042 39868 ft 448 kts 349°
2026-04-25 09:57 30.21136 104.52526 39862 ft 445 kts 349°
2026-04-25 09:57 30.27301 104.52010 39859 ft 443 kts 349°
2026-04-25 09:58 30.33453 104.51494 39859 ft 443 kts 349°
2026-04-25 09:58 30.39614 104.50975 39861 ft 444 kts 349°
2026-04-25 09:59 30.45789 104.50456 39864 ft 445 kts 349°
2026-04-25 09:59 30.51982 104.49935 39862 ft 446 kts 349°
2026-04-25 10:00 30.58173 104.49380 39871 ft 444 kts 346°
2026-04-25 10:00 30.64170 104.47942 39868 ft 436 kts 336°
2026-04-25 10:01 30.69910 104.45701 39871 ft 435 kts 336°
2026-04-25 10:01 30.75657 104.43451 39864 ft 436 kts 336°
2026-04-25 10:02 30.80968 104.41404 39865 ft 436 kts 336°
2026-04-25 10:02 30.83847 104.40326 39856 ft 437 kts 339°
2026-04-25 10:03 30.85879 104.39750 39860 ft 440 kts 342°
2026-04-25 10:03 30.91986 104.38800 39860 ft 447 kts 351°
2026-04-25 10:04 30.98216 104.38643 39860 ft 448 kts 352°
2026-04-25 10:04 31.04428 104.38533 39860 ft 447 kts 352°
2026-04-25 10:05 31.10634 104.38385 39855 ft 445 kts 352°
2026-04-25 10:05 31.16820 104.38219 39855 ft 444 kts 352°
2026-04-25 10:06 31.22999 104.38053 39857 ft 444 kts 352°
2026-04-25 10:06 31.29171 104.37816 39865 ft 443 kts 351°
2026-04-25 10:07 31.35321 104.37437 39859 ft 443 kts 350°
2026-04-25 10:07 31.41474 104.37055 39858 ft 443 kts 351°
2026-04-25 10:08 31.47641 104.36692 39860 ft 444 kts 351°
2026-04-25 10:08 31.53808 104.36335 39886 ft 444 kts 351°
2026-04-25 10:09 31.59974 104.35978 39879 ft 443 kts 351°
2026-04-25 10:09 31.66130 104.35621 39915 ft 442 kts 351°
2026-04-25 10:10 31.72256 104.35263 39944 ft 439 kts 351°
2026-04-25 10:10 31.78351 104.34916 39892 ft 439 kts 351°
2026-04-25 10:11 31.84389 104.34605 39976 ft 437 kts 351°
2026-04-25 10:11 31.90507 104.34294 39925 ft 441 kts 351°
2026-04-25 10:12 31.96618 104.33987 39939 ft 442 kts 351°
2026-04-25 10:13 32.05887 104.33510 39930 ft 445 kts 352°
2026-04-25 10:13 32.12060 104.33201 39931 ft 445 kts 352°
2026-04-25 10:14 32.18261 104.32870 39951 ft 447 kts 352°
2026-04-25 10:14 32.24493 104.32550 39924 ft 449 kts 352°
2026-04-25 10:15 32.30729 104.32233 39959 ft 448 kts 352°
2026-04-25 10:15 32.36941 104.31911 39949 ft 443 kts 352°
2026-04-25 10:16 32.43064 104.31598 39937 ft 439 kts 352°
2026-04-25 10:16 32.49153 104.31290 39945 ft 438 kts 352°
2026-04-25 10:17 32.55252 104.30983 39950 ft 439 kts 352°
2026-04-25 10:17 32.61401 104.30673 39971 ft 444 kts 352°
2026-04-25 10:18 32.67566 104.30383 39923 ft 447 kts 352°
2026-04-25 10:18 32.73783 104.30090 39922 ft 447 kts 352°
2026-04-25 10:19 32.79977 104.29790 39901 ft 445 kts 352°
2026-04-25 10:19 32.86148 104.29492 39902 ft 443 kts 352°
2026-04-25 10:20 32.92292 104.29202 39901 ft 442 kts 352°
2026-04-25 10:20 32.98438 104.28903 39902 ft 442 kts 352°
2026-04-25 10:21 33.04573 104.28605 39886 ft 442 kts 352°
2026-04-25 10:21 33.09678 104.28359 39860 ft 441 kts 352°
2026-04-25 10:22 33.15788 104.28064 39894 ft 439 kts 352°
2026-04-25 10:22 33.21909 104.27768 39864 ft 441 kts 352°
2026-04-25 10:23 33.28047 104.27471 39866 ft 442 kts 352°
2026-04-25 10:23 33.34114 104.26711 39865 ft 433 kts 341°
2026-04-25 10:24 33.39777 104.24375 39846 ft 428 kts 330°
2026-04-25 10:24 33.44944 104.20883 39831 ft 426 kts 327°
2026-04-25 10:25 33.50075 104.17297 39823 ft 429 kts 327°
2026-04-25 10:25 33.55301 104.13797 39839 ft 431 kts 332°
2026-04-25 10:26 33.61061 104.11648 39828 ft 438 kts 344°
2026-04-25 10:26 33.67135 104.11029 39843 ft 444 kts 354°
2026-04-25 10:27 33.73325 104.11089 39810 ft 444 kts 355°
2026-04-25 10:27 33.79499 104.11166 39800 ft 443 kts 355°
2026-04-25 10:28 33.85664 104.11196 39791 ft 442 kts 354°
2026-04-25 10:28 33.91822 104.11197 39832 ft 443 kts 354°
2026-04-25 10:29 33.97971 104.11199 39802 ft 441 kts 354°
2026-04-25 10:29 34.04033 104.11222 39788 ft 433 kts 354°
2026-04-25 10:30 34.10061 104.11209 39782 ft 433 kts 354°
2026-04-25 10:30 34.16074 104.11178 39825 ft 433 kts 354°
2026-04-25 10:31 34.22151 104.11183 39822 ft 440 kts 354°
2026-04-25 10:31 34.28300 104.11194 39830 ft 443 kts 354°
2026-04-25 10:32 34.34481 104.11195 39835 ft 445 kts 354°
2026-04-25 10:32 34.40684 104.11202 39827 ft 445 kts 354°
2026-04-25 10:33 34.46837 104.11207 39837 ft 436 kts 354°
2026-04-25 10:33 34.52882 104.11208 39849 ft 434 kts 354°
2026-04-25 10:34 34.58929 104.11189 39834 ft 435 kts 354°
2026-04-25 10:34 34.64999 104.11194 39838 ft 436 kts 354°
2026-04-25 10:35 34.71027 104.11203 39849 ft 436 kts 354°
2026-04-25 10:35 34.77083 104.11207 39845 ft 435 kts 354°
2026-04-25 10:36 34.83130 104.11194 39846 ft 435 kts 354°
2026-04-25 10:36 34.89198 104.11198 39839 ft 436 kts 354°
2026-04-25 10:37 34.95274 104.11199 39883 ft 439 kts 354°
2026-04-25 10:37 35.01392 104.11196 39853 ft 442 kts 354°
2026-04-25 10:38 35.07534 104.11197 39874 ft 440 kts 354°
2026-04-25 10:38 35.13649 104.11201 39869 ft 438 kts 354°
2026-04-25 10:39 35.19739 104.11201 39871 ft 436 kts 354°
2026-04-25 10:39 35.25802 104.11201 39870 ft 435 kts 354°
2026-04-25 10:40 35.31852 104.11200 39876 ft 435 kts 354°
2026-04-25 10:40 35.37912 104.11200 39883 ft 435 kts 354°
2026-04-25 10:41 35.43976 104.11200 39904 ft 437 kts 353°
2026-04-25 10:41 35.50069 104.11198 39892 ft 439 kts 353°
2026-04-25 10:42 35.56193 104.11219 39894 ft 440 kts 353°
2026-04-25 10:42 35.62322 104.11237 39891 ft 441 kts 353°
2026-04-25 10:43 35.68456 104.11256 39900 ft 440 kts 353°
2026-04-25 10:43 35.74579 104.11276 39895 ft 440 kts 353°
2026-04-25 10:44 35.80655 104.11291 39901 ft 439 kts 353°
2026-04-25 10:44 35.86721 104.10954 39905 ft 433 kts 348°
2026-04-25 10:45 35.92724 104.10271 39915 ft 434 kts 348°
2026-04-25 10:45 35.98751 104.09586 39911 ft 436 kts 348°
2026-04-25 10:46 36.04790 104.08925 39908 ft 437 kts 348°
2026-04-25 10:46 36.10851 104.08265 39907 ft 437 kts 348°
2026-04-25 10:47 36.16919 104.07606 39933 ft 438 kts 348°
2026-04-25 10:47 36.23003 104.06943 39922 ft 440 kts 348°
2026-04-25 10:48 36.29103 104.06272 39914 ft 440 kts 348°
2026-04-25 10:48 36.35197 104.05604 39925 ft 439 kts 348°
2026-04-25 10:49 36.41282 104.04938 39951 ft 439 kts 348°
2026-04-25 10:49 36.47369 104.04268 39940 ft 439 kts 348°
2026-04-25 10:50 36.53453 104.03598 39949 ft 439 kts 348°
2026-04-25 10:50 36.59543 104.02927 39958 ft 439 kts 348°
2026-04-25 10:51 36.65537 104.01778 39969 ft 434 kts 342°
2026-04-25 10:51 36.71454 104.00232 39968 ft 435 kts 342°
2026-04-25 10:52 36.77276 103.98753 39974 ft 436 kts 342°
2026-04-25 10:52 36.83275 103.97252 39975 ft 437 kts 343°
2026-04-25 10:53 36.89213 103.95766 39987 ft 438 kts 343°
2026-04-25 10:53 36.95197 103.94263 39975 ft 439 kts 343°
2026-04-25 10:54 37.01177 103.92759 40006 ft 439 kts 343°
2026-04-25 10:54 37.07168 103.91249 40008 ft 439 kts 343°
2026-04-25 10:55 37.13157 103.89738 40002 ft 439 kts 343°
2026-04-25 10:55 37.19149 103.88219 40000 ft 439 kts 343°
2026-04-25 10:56 37.25143 103.86695 39993 ft 439 kts 343°
2026-04-25 10:56 37.31103 103.85059 39969 ft 437 kts 339°
2026-04-25 10:57 37.36762 103.82399 39985 ft 433 kts 332°
2026-04-25 10:57 37.42293 103.79348 39976 ft 436 kts 332°
2026-04-25 10:58 37.47863 103.76299 39957 ft 437 kts 332°
2026-04-25 10:58 37.53456 103.73264 39958 ft 438 kts 332°
2026-04-25 10:59 37.59039 103.70227 39951 ft 437 kts 332°
2026-04-25 10:59 37.64618 103.67194 39961 ft 436 kts 332°
2026-04-25 11:00 37.70157 103.64180 39928 ft 436 kts 332°
2026-04-25 11:00 37.75722 103.61147 39936 ft 436 kts 332°
2026-04-25 11:01 37.81293 103.58103 39918 ft 436 kts 332°
2026-04-25 11:01 37.86858 103.55057 39915 ft 436 kts 332°
2026-04-25 11:02 37.92421 103.52007 39914 ft 436 kts 332°
2026-04-25 11:02 37.97991 103.48950 39899 ft 436 kts 332°
2026-04-25 11:03 38.02612 103.46410 39907 ft 436 kts 332°
2026-04-25 11:03 38.09105 103.42834 39894 ft 435 kts 332°
2026-04-25 11:04 38.14660 103.39768 39898 ft 435 kts 332°
2026-04-25 11:04 38.20212 103.36700 39884 ft 435 kts 332°
2026-04-25 11:05 38.25766 103.33626 39889 ft 435 kts 332°
2026-04-25 11:05 38.31319 103.30546 39876 ft 435 kts 332°
2026-04-25 11:06 38.35934 103.27983 39876 ft 435 kts 332°
2026-04-25 11:06 38.41493 103.24891 39873 ft 436 kts 332°
2026-04-25 11:07 38.47057 103.21790 39858 ft 436 kts 332°
2026-04-25 11:07 38.52618 103.18687 39856 ft 436 kts 332°
2026-04-25 11:08 38.58183 103.15576 39852 ft 436 kts 331°
2026-04-25 11:08 38.63750 103.12459 39849 ft 437 kts 331°
2026-04-25 11:09 38.69316 103.09337 39842 ft 437 kts 331°
2026-04-25 11:09 38.74882 103.06209 39841 ft 437 kts 331°
2026-04-25 11:10 38.80448 103.03075 39834 ft 437 kts 331°
2026-04-25 11:10 38.85985 102.99954 39841 ft 437 kts 331°
2026-04-25 11:11 38.91509 102.96834 39824 ft 436 kts 331°
2026-04-25 11:11 38.97025 102.93713 39815 ft 436 kts 331°
2026-04-25 11:12 39.02564 102.90574 39813 ft 435 kts 331°
2026-04-25 11:12 39.08105 102.87428 39816 ft 435 kts 331°
2026-04-25 11:13 39.13644 102.84277 39813 ft 435 kts 331°
2026-04-25 11:13 39.19180 102.81123 39813 ft 435 kts 331°
2026-04-25 11:14 39.24722 102.77960 39826 ft 435 kts 330°
2026-04-25 11:14 39.30262 102.74793 39821 ft 435 kts 331°
2026-04-25 11:15 39.35798 102.71622 39830 ft 435 kts 331°
2026-04-25 11:15 39.41440 102.68721 39821 ft 441 kts 339°
2026-04-25 11:16 39.50625 102.67150 39825 ft 453 kts 353°
2026-04-25 11:16 39.56947 102.67271 39854 ft 455 kts 354°
2026-04-25 11:17 39.63284 102.67449 39836 ft 455 kts 354°
2026-04-25 11:17 39.69612 102.67583 39837 ft 455 kts 354°
2026-04-25 11:18 39.75937 102.67685 39839 ft 454 kts 354°
2026-04-25 11:18 39.82263 102.67777 39840 ft 454 kts 354°
2026-04-25 11:19 39.88583 102.67870 39837 ft 454 kts 354°
2026-04-25 11:19 39.94898 102.67964 39842 ft 453 kts 354°
2026-04-25 11:20 40.01201 102.68059 39860 ft 454 kts 354°
2026-04-25 11:20 40.07525 102.68154 39844 ft 455 kts 354°
2026-04-25 11:21 40.13857 102.68250 39840 ft 455 kts 354°
2026-04-25 11:21 40.20156 102.68346 39839 ft 455 kts 354°
2026-04-25 11:22 40.25469 102.68427 39851 ft 456 kts 354°
2026-04-25 11:22 40.32842 102.68539 39840 ft 456 kts 354°
2026-04-25 11:23 40.39183 102.68636 39841 ft 456 kts 354°
2026-04-25 11:23 40.45525 102.68733 39841 ft 455 kts 354°
2026-04-25 11:24 40.51859 102.68830 39841 ft 455 kts 354°
2026-04-25 11:24 40.58193 102.68927 39841 ft 455 kts 354°
2026-04-25 11:25 40.64526 102.69024 39844 ft 455 kts 354°
2026-04-25 11:25 40.70866 102.69121 39846 ft 456 kts 354°
2026-04-25 11:26 40.77209 102.69219 39843 ft 456 kts 354°
2026-04-25 11:26 40.83548 102.69318 39845 ft 455 kts 354°
2026-04-25 11:27 40.89889 102.69416 39857 ft 456 kts 354°
2026-04-25 11:27 40.95159 102.69497 39854 ft 456 kts 354°
2026-04-25 11:28 41.02556 102.69612 39840 ft 455 kts 354°
2026-04-25 11:28 41.08887 102.69711 39863 ft 455 kts 354°
2026-04-25 11:29 41.15187 102.69809 39853 ft 456 kts 354°
2026-04-25 11:29 41.21566 102.69909 39841 ft 455 kts 354°
2026-04-25 11:30 41.27865 102.70007 39830 ft 455 kts 354°
2026-04-25 11:30 41.34202 102.70107 39842 ft 455 kts 354°
2026-04-25 11:31 41.40535 102.70207 39839 ft 455 kts 354°
2026-04-25 11:31 41.46868 102.70306 39829 ft 455 kts 354°
2026-04-25 11:32 41.53195 102.70406 39847 ft 455 kts 354°
2026-04-25 11:32 41.59523 102.70451 39840 ft 454 kts 353°
2026-04-25 11:33 41.65843 102.70535 39838 ft 456 kts 356°
2026-04-25 11:33 41.72186 102.71750 39847 ft 466 kts
2026-04-25 11:34 41.78499 102.73799 39848 ft 467 kts
2026-04-25 11:34 41.84813 102.75850 39851 ft 467 kts
2026-04-25 11:35 41.91137 102.77851 39884 ft 467 kts
2026-04-25 11:35 41.97465 102.79826 39849 ft 462 kts
2026-04-25 11:36 42.00595 102.80016 39853 ft 445 kts 346°
2026-04-25 11:36 42.03539 102.79002 39869 ft 433 kts 332°
2026-04-25 11:36 42.08512 102.74702 39854 ft 422 kts 311°
2026-04-25 11:37 42.12559 102.68911 39882 ft 428 kts 310°
2026-04-25 11:37 42.16649 102.63023 39872 ft 430 kts 310°
2026-04-25 11:38 42.20717 102.57235 39863 ft 421 kts 310°
2026-04-25 11:38 42.24758 102.51513 39873 ft 422 kts 310°
2026-04-25 11:39 42.28806 102.45779 39881 ft 422 kts 310°
2026-04-25 11:39 42.32863 102.40023 39862 ft 423 kts 310°
2026-04-25 11:40 42.36918 102.34258 39887 ft 423 kts 311°
2026-04-25 11:40 42.40972 102.28482 39886 ft 424 kts 310°
2026-04-25 11:41 42.45030 102.22689 39882 ft 424 kts 310°
2026-04-25 11:41 42.49055 102.16932 39882 ft 424 kts 310°
2026-04-25 11:42 42.53104 102.11129 39880 ft 424 kts 310°
2026-04-25 11:42 42.57150 102.05317 39886 ft 423 kts 310°
2026-04-25 11:43 42.61128 101.99593 39880 ft 423 kts 310°
2026-04-25 11:43 42.65161 101.93777 39891 ft 423 kts 310°
2026-04-25 11:44 42.69189 101.87957 39896 ft 423 kts 310°
2026-04-25 11:44 42.73215 101.82127 39889 ft 423 kts 310°
2026-04-25 11:45 42.77240 101.76288 39899 ft 423 kts 310°
2026-04-25 11:45 42.81260 101.70443 39904 ft 423 kts 310°
2026-04-25 11:46 42.85277 101.64592 39931 ft 422 kts 310°
2026-04-25 11:46 42.89283 101.58744 39918 ft 422 kts 310°
2026-04-25 11:47 42.93276 101.52905 39925 ft 421 kts 310°
2026-04-25 11:47 42.97260 101.47064 39927 ft 420 kts 310°
2026-04-25 11:48 43.01230 101.41234 39931 ft 420 kts 310°
2026-04-25 11:48 43.05205 101.35383 39937 ft 420 kts 310°
2026-04-25 11:49 43.09177 101.29525 39938 ft 420 kts 309°
2026-04-25 11:49 43.13149 101.23655 39949 ft 420 kts 309°
2026-04-25 11:50 43.16446 101.18774 39956 ft 420 kts 309°
2026-04-25 11:50 43.21060 101.11928 39955 ft 421 kts 309°
2026-04-25 11:51 43.25028 101.06028 39951 ft 421 kts 309°
2026-04-25 11:51 43.28326 101.01115 39958 ft 420 kts 309°
2026-04-25 11:52 43.32228 100.95290 39968 ft 421 kts 309°
2026-04-25 11:52 43.36189 100.89365 39961 ft 421 kts 309°
2026-04-25 11:53 43.40144 100.83440 39969 ft 421 kts 309°
2026-04-25 11:53 43.44096 100.77501 39970 ft 421 kts 309°
2026-04-25 11:54 43.48050 100.71547 39966 ft 421 kts 309°
2026-04-25 11:55 43.53971 100.62607 39973 ft 421 kts 309°
2026-04-25 11:55 43.57920 100.56627 39941 ft 422 kts 309°
2026-04-25 11:56 43.61863 100.50645 39948 ft 422 kts 309°
2026-04-25 11:56 43.65780 100.44689 39954 ft 422 kts 309°
2026-04-25 11:57 43.69719 100.38688 39933 ft 422 kts 309°
2026-04-25 11:57 43.73657 100.32675 39936 ft 422 kts 309°
2026-04-25 11:58 43.77593 100.26651 39942 ft 422 kts 309°
2026-04-25 11:58 43.81528 100.20618 39930 ft 422 kts 309°
2026-04-25 11:59 43.85460 100.14576 39933 ft 422 kts 308°
2026-04-25 11:59 43.89385 100.08533 39931 ft 421 kts 308°
2026-04-25 12:00 43.95198 99.99558 39940 ft 421 kts 308°
2026-04-25 12:01 44.01057 99.90482 39953 ft 422 kts 308°
2026-04-25 12:01 44.04970 99.84404 39958 ft 422 kts 308°
2026-04-25 12:02 44.10841 99.75263 39958 ft 422 kts 308°
2026-04-25 12:02 44.14753 99.69155 39968 ft 422 kts 308°
2026-04-25 12:03 44.18659 99.63043 39968 ft 422 kts 308°
2026-04-25 12:03 44.22563 99.56922 39990 ft 422 kts 308°
2026-04-25 12:04 44.26442 99.50824 39985 ft 423 kts 308°
2026-04-25 12:04 44.30338 99.44689 39972 ft 423 kts 308°
2026-04-25 12:05 44.34233 99.38541 39975 ft 422 kts 308°
2026-04-25 12:05 44.38123 99.32387 39980 ft 422 kts 308°
2026-04-25 12:06 44.42008 99.26229 39978 ft 422 kts 308°
2026-04-25 12:06 44.45893 99.20057 39984 ft 423 kts 308°
2026-04-25 12:07 44.49779 99.13870 39979 ft 424 kts 308°
2026-04-25 12:07 44.53671 99.07659 39971 ft 424 kts 308°
2026-04-25 12:08 44.57556 99.01446 39985 ft 424 kts 308°
2026-04-25 12:08 44.61384 98.95310 39990 ft 424 kts 308°
2026-04-25 12:09 44.65266 98.89075 39973 ft 424 kts 308°
2026-04-25 12:09 44.69146 98.82829 39980 ft 424 kts 308°
2026-04-25 12:10 44.72993 98.76624 39982 ft 423 kts 307°
2026-04-25 12:10 44.76856 98.70376 39977 ft 424 kts 307°
2026-04-25 12:11 44.80727 98.64103 39982 ft 424 kts 307°
2026-04-25 12:11 44.84592 98.57826 39990 ft 424 kts 307°
2026-04-25 12:12 44.87805 98.52597 40008 ft 424 kts 307°
2026-04-25 12:12 44.92315 98.45241 40004 ft 424 kts 307°
2026-04-25 12:13 44.96169 98.38939 40006 ft 424 kts 307°
2026-04-25 12:13 45.00007 98.32650 40013 ft 424 kts 307°
2026-04-25 12:14 45.03852 98.26333 40035 ft 424 kts 307°
2026-04-25 12:14 45.07698 98.20002 40030 ft 424 kts 307°
2026-04-25 12:15 45.11548 98.13650 40035 ft 425 kts 307°
2026-04-25 12:15 45.15403 98.07277 40021 ft 426 kts 307°
2026-04-25 12:16 45.19230 98.00936 40037 ft 426 kts 307°
2026-04-25 12:16 45.23029 97.94643 40031 ft 425 kts 307°
2026-04-25 12:17 45.26858 97.88251 40036 ft 425 kts 307°
2026-04-25 12:17 45.30693 97.81844 40031 ft 426 kts 307°
2026-04-25 12:18 45.34534 97.75420 40050 ft 427 kts 307°
2026-04-25 12:18 45.38377 97.68980 40038 ft 427 kts 307°
2026-04-25 12:19 45.44140 97.59293 40038 ft 427 kts 307°
2026-04-25 12:20 45.47978 97.52824 40031 ft 427 kts 307°
2026-04-25 12:20 45.51807 97.46352 40026 ft 427 kts 307°
2026-04-25 12:21 45.55612 97.39906 40027 ft 428 kts 307°
2026-04-25 12:21 45.59446 97.33398 40019 ft 428 kts 307°
2026-04-25 12:22 45.63273 97.26885 40018 ft 428 kts 307°
2026-04-25 12:22 45.67094 97.20368 40019 ft 428 kts 307°
2026-04-25 12:23 45.70911 97.13842 40012 ft 428 kts 307°
2026-04-25 12:23 45.74726 97.07304 40011 ft 428 kts 307°
2026-04-25 12:24 45.78540 97.00752 40024 ft 429 kts 307°
2026-04-25 12:24 45.82307 96.94265 40021 ft 430 kts 307°
2026-04-25 12:25 45.86128 96.87670 40033 ft 430 kts 307°
2026-04-25 12:25 45.89948 96.81063 40028 ft 430 kts 307°
2026-04-25 12:26 45.93763 96.74448 40035 ft 430 kts 307°
2026-04-25 12:26 45.97577 96.67819 40049 ft 430 kts 307°
2026-04-25 12:27 46.01385 96.61184 40056 ft 431 kts 306°
2026-04-25 12:27 46.05181 96.54554 40041 ft 432 kts 306°
2026-04-25 12:28 46.08996 96.47875 40046 ft 432 kts 306°
2026-04-25 12:28 46.12808 96.41186 40053 ft 432 kts 306°
2026-04-25 12:29 46.16615 96.34490 40051 ft 432 kts 306°
2026-04-25 12:29 46.20417 96.27784 40078 ft 432 kts 307°
2026-04-25 12:30 46.24223 96.21056 40062 ft 433 kts 306°
2026-04-25 12:30 46.28034 96.14305 40058 ft 434 kts 306°
2026-04-25 12:31 46.31846 96.07534 40046 ft 434 kts 306°
2026-04-25 12:31 46.35654 96.00752 40039 ft 434 kts 306°
2026-04-25 12:32 46.39403 95.94061 40032 ft 433 kts 306°
2026-04-25 12:32 46.43189 95.87287 40067 ft 433 kts 306°
2026-04-25 12:33 46.46981 95.80485 40060 ft 434 kts 306°
2026-04-25 12:33 46.50772 95.73664 40062 ft 434 kts 306°
2026-04-25 12:34 46.54562 95.66836 40046 ft 434 kts 306°
2026-04-25 12:34 46.58350 95.59992 40046 ft 435 kts 306°
2026-04-25 12:35 46.62136 95.53132 40057 ft 435 kts 306°
2026-04-25 12:35 46.65923 95.46255 40047 ft 436 kts 306°
2026-04-25 12:36 46.69715 95.39349 40058 ft 437 kts 306°
2026-04-25 12:36 46.72866 95.33599 40054 ft 437 kts 306°
2026-04-25 12:37 46.76653 95.26669 40044 ft 437 kts 306°
2026-04-25 12:37 46.80437 95.19728 40072 ft 437 kts 306°
2026-04-25 12:38 46.84218 95.12774 40059 ft 437 kts 306°
2026-04-25 12:38 46.87996 95.05809 40076 ft 437 kts 306°
2026-04-25 12:39 46.91723 94.98918 40065 ft 438 kts 306°
2026-04-25 12:39 46.95501 94.91918 40061 ft 438 kts 306°
2026-04-25 12:40 46.99278 94.84899 40045 ft 439 kts 306°
2026-04-25 12:40 47.03045 94.77884 40052 ft 439 kts 306°
2026-04-25 12:41 47.06820 94.70836 40053 ft 440 kts 306°
2026-04-25 12:41 47.10595 94.63769 40054 ft 440 kts 306°
2026-04-25 12:42 47.14361 94.56701 40058 ft 440 kts 306°
2026-04-25 12:42 47.18128 94.49612 40045 ft 440 kts 306°
2026-04-25 12:43 47.21893 94.42508 40069 ft 440 kts 306°
2026-04-25 12:43 47.27538 94.31824 40054 ft 441 kts 306°
2026-04-25 12:44 47.31271 94.24736 40074 ft 441 kts 306°
2026-04-25 12:45 47.36916 94.13981 40069 ft 442 kts 305°
2026-04-25 12:45 47.42566 94.03176 40070 ft 444 kts 305°
2026-04-25 12:46 47.46282 93.96045 40078 ft 445 kts 305°
2026-04-25 12:46 47.50057 93.88783 40070 ft 445 kts 305°
2026-04-25 12:47 47.53823 93.81519 40090 ft 445 kts 305°
2026-04-25 12:47 47.57586 93.74240 40076 ft 446 kts 305°
2026-04-25 12:48 47.61349 93.66942 40070 ft 445 kts 305°
2026-04-25 12:48 47.65107 93.59634 40072 ft 445 kts 305°
2026-04-25 12:49 47.68855 93.52327 40076 ft 445 kts 305°
2026-04-25 12:49 47.72596 93.45014 40076 ft 445 kts 305°
2026-04-25 12:50 47.76331 93.37692 40091 ft 445 kts 305°
2026-04-25 12:50 47.80068 93.30348 40082 ft 446 kts 305°
2026-04-25 12:51 47.83784 93.23022 40083 ft 447 kts 305°
2026-04-25 12:51 47.87526 93.15630 40088 ft 447 kts 305°
2026-04-25 12:52 47.91267 93.08220 40090 ft 448 kts 304°
2026-04-25 12:52 47.95006 93.00792 40093 ft 448 kts 304°
2026-04-25 12:53 47.98690 92.93455 40096 ft 448 kts 304°
2026-04-25 12:53 48.02422 92.86001 40090 ft 449 kts 304°
2026-04-25 12:54 48.06160 92.78514 40089 ft 449 kts 304°
2026-04-25 12:54 48.09888 92.71026 40093 ft 449 kts 304°
2026-04-25 12:55 48.12989 92.64783 40083 ft 449 kts 304°
2026-04-25 12:55 48.17341 92.55999 40086 ft 449 kts 304°
2026-04-25 12:56 48.21060 92.48472 40107 ft 449 kts 304°
2026-04-25 12:56 48.24774 92.40936 40093 ft 450 kts 304°
2026-04-25 12:57 48.28490 92.33374 40085 ft 449 kts 304°
2026-04-25 12:57 48.32191 92.25821 40087 ft 449 kts 304°
2026-04-25 12:58 48.35885 92.18260 40091 ft 448 kts 304°
2026-04-25 12:58 48.39550 92.10738 40097 ft 449 kts 304°
2026-04-25 12:59 48.43235 92.03154 40112 ft 449 kts 304°
2026-04-25 12:59 48.46867 91.95659 40102 ft 449 kts 305°
2026-04-25 13:00 48.49329 91.90567 40102 ft 449 kts 304°
2026-04-25 13:00 48.54215 91.80430 40105 ft 448 kts 304°
2026-04-25 13:01 48.57879 91.72803 40093 ft 448 kts 304°
2026-04-25 13:01 48.61535 91.65175 40103 ft 449 kts 304°
2026-04-25 13:02 48.65189 91.57524 40118 ft 449 kts 304°
2026-04-25 13:02 48.68841 91.49858 40100 ft 449 kts 304°
2026-04-25 13:03 48.72484 91.42192 40097 ft 448 kts 304°
2026-04-25 13:03 48.76115 91.34526 40099 ft 448 kts 304°
2026-04-25 13:04 48.79742 91.26847 40095 ft 448 kts 304°
2026-04-25 13:04 48.83368 91.19148 40094 ft 448 kts 304°
2026-04-25 13:05 48.86966 91.11487 40120 ft 449 kts 304°
2026-04-25 13:05 48.90592 91.03743 40105 ft 450 kts 304°
2026-04-25 13:06 48.94173 90.96073 40098 ft 450 kts 304°
2026-04-25 13:06 48.97797 90.88290 40084 ft 451 kts 304°
2026-04-25 13:07 49.01414 90.80501 40085 ft 450 kts 304°
2026-04-25 13:07 49.05023 90.72701 40074 ft 450 kts 304°
2026-04-25 13:08 49.08617 90.64899 40091 ft 449 kts 304°
2026-04-25 13:08 49.12227 90.57037 40079 ft 449 kts 304°
2026-04-25 13:09 49.15787 90.49264 40085 ft 450 kts 303°
2026-04-25 13:09 49.19366 90.41429 40075 ft 450 kts 303°
2026-04-25 13:10 49.22944 90.33572 40090 ft 450 kts 303°
2026-04-25 13:10 49.26523 90.25687 40098 ft 451 kts 303°
2026-04-25 13:11 49.30100 90.17787 40093 ft 451 kts 303°
2026-04-25 13:11 49.33672 90.09874 40112 ft 451 kts 303°
2026-04-25 13:12 49.37244 90.01935 40110 ft 452 kts 303°
2026-04-25 13:12 49.40160 89.95437 40105 ft 452 kts 303°
2026-04-25 13:13 49.44330 89.86118 40121 ft 453 kts 303°
2026-04-25 13:13 49.47897 89.78119 40121 ft 454 kts 303°
2026-04-25 13:14 49.51461 89.70104 40119 ft 454 kts 303°
2026-04-25 13:14 49.55021 89.62073 40132 ft 454 kts 303°
2026-04-25 13:15 49.58551 89.54086 40126 ft 453 kts 303°
2026-04-25 13:15 49.62087 89.46065 40130 ft 452 kts 303°
2026-04-25 13:16 49.65580 89.38010 40126 ft 451 kts 302°
2026-04-25 13:16 49.68998 89.29882 40141 ft 451 kts 302°
2026-04-25 13:17 49.72410 89.21736 40130 ft 452 kts 302°
2026-04-25 13:17 49.75829 89.13579 40139 ft 452 kts 302°
2026-04-25 13:18 49.79251 89.05402 40120 ft 453 kts 302°
2026-04-25 13:18 49.82620 88.97328 40125 ft 453 kts 302°
2026-04-25 13:19 49.86031 88.89124 40117 ft 453 kts 302°
2026-04-25 13:19 49.88290 88.83678 40117 ft 453 kts 301°
2026-04-25 13:20 49.92843 88.72669 40118 ft 453 kts 301°
2026-04-25 13:20 49.96212 88.64485 40131 ft 453 kts 301°
2026-04-25 13:21 49.99273 88.55934 40123 ft 453 kts 297°
2026-04-25 13:21 50.02179 88.47251 40125 ft 453 kts 296°
2026-04-25 13:22 50.05089 88.38546 40129 ft 454 kts 297°
2026-04-25 13:23 50.09002 88.26890 40133 ft 454 kts 297°
2026-04-25 13:23 50.11904 88.18227 40136 ft 454 kts 297°
2026-04-25 13:24 50.14825 88.09474 40136 ft 455 kts 296°
2026-04-25 13:24 50.17738 88.00718 40152 ft 455 kts 296°
2026-04-25 13:25 50.20606 87.92064 40156 ft 455 kts 296°
2026-04-25 13:25 50.23509 87.83274 40148 ft 455 kts 296°
2026-04-25 13:26 50.26402 87.74484 40157 ft 455 kts 296°
2026-04-25 13:26 50.29289 87.65682 40149 ft 455 kts 296°
2026-04-25 13:27 50.32332 87.56990 40147 ft 456 kts 302°
2026-04-25 13:27 50.36068 87.49030 40151 ft 457 kts 306°
2026-04-25 13:28 50.39954 87.41053 40155 ft 458 kts 306°
2026-04-25 13:28 50.43770 87.33140 40154 ft 458 kts 306°
2026-04-25 13:29 50.47588 87.25143 40148 ft 458 kts 305°
2026-04-25 13:29 50.51394 87.17131 40129 ft 457 kts 305°
2026-04-25 13:30 50.57092 87.05096 40135 ft 457 kts 305°
2026-04-25 13:31 50.62726 86.93143 40146 ft 458 kts 305°
2026-04-25 13:31 50.66509 86.85082 40135 ft 457 kts 305°
2026-04-25 13:32 50.70288 86.77012 40131 ft 457 kts 305°
2026-04-25 13:32 50.74057 86.68936 40145 ft 458 kts 305°
2026-04-25 13:33 50.77831 86.60825 40144 ft 459 kts 305°
2026-04-25 13:33 50.81604 86.52684 40141 ft 459 kts 305°
2026-04-25 13:34 50.85380 86.44512 40152 ft 460 kts 304°
2026-04-25 13:34 50.89127 86.36371 40150 ft 460 kts 304°
2026-04-25 13:35 50.92886 86.28180 40139 ft 459 kts 304°
2026-04-25 13:35 50.96633 86.19989 40142 ft 459 kts 304°
2026-04-25 13:36 51.00372 86.11792 40160 ft 459 kts 304°
2026-04-25 13:36 51.04113 86.03559 40154 ft 459 kts 304°
2026-04-25 13:37 51.07802 85.95420 40146 ft 460 kts 304°
2026-04-25 13:37 51.11533 85.87162 40171 ft 459 kts 304°
2026-04-25 13:38 51.15252 85.78905 40171 ft 459 kts 304°
2026-04-25 13:38 51.18966 85.70629 40175 ft 459 kts 304°
2026-04-25 13:39 51.22684 85.62322 40153 ft 461 kts 304°
2026-04-25 13:39 51.26400 85.53990 40169 ft 461 kts 304°
2026-04-25 13:40 51.30118 85.45640 40160 ft 461 kts 304°
2026-04-25 13:40 51.33826 85.37283 40160 ft 461 kts 304°
2026-04-25 13:41 51.37525 85.28915 40156 ft 460 kts 304°
2026-04-25 13:41 51.41214 85.20543 40161 ft 460 kts 304°
2026-04-25 13:42 51.44900 85.12150 40154 ft 461 kts 304°
2026-04-25 13:42 51.48584 85.03736 40155 ft 462 kts 304°
2026-04-25 13:43 51.52220 84.95404 40158 ft 461 kts 303°
2026-04-25 13:43 51.55899 84.86947 40151 ft 462 kts 303°
2026-04-25 13:44 51.59573 84.78473 40168 ft 461 kts 303°
2026-04-25 13:44 51.63237 84.69995 40162 ft 462 kts 303°
2026-04-25 13:45 51.66896 84.61499 40154 ft 462 kts 303°
2026-04-25 13:45 51.70547 84.52993 40154 ft 462 kts 303°
2026-04-25 13:46 51.74200 84.44457 40154 ft 461 kts 303°
2026-04-25 13:46 51.77839 84.35924 40147 ft 461 kts 303°
2026-04-25 13:47 51.81467 84.27390 40146 ft 461 kts 303°
2026-04-25 13:47 51.85091 84.18837 40148 ft 461 kts 303°
2026-04-25 13:48 51.88705 84.10278 40149 ft 461 kts 303°
2026-04-25 13:48 51.92293 84.01752 40156 ft 462 kts 303°
2026-04-25 13:49 51.95856 83.93257 40146 ft 462 kts 303°
2026-04-25 13:49 51.99461 83.84634 40148 ft 462 kts 303°
2026-04-25 13:50 52.03061 83.75994 40151 ft 462 kts 303°
2026-04-25 13:50 52.06653 83.67345 40147 ft 462 kts 303°
2026-04-25 13:51 52.10238 83.58684 40143 ft 462 kts 303°
2026-04-25 13:51 52.13816 83.50009 40152 ft 462 kts 302°
2026-04-25 13:52 52.17389 83.41318 40147 ft 462 kts 302°
2026-04-25 13:52 52.20951 83.32623 40146 ft 461 kts 302°
2026-04-25 13:53 52.24508 83.23912 40145 ft 461 kts 302°
2026-04-25 13:53 52.28053 83.15199 40148 ft 461 kts 302°
2026-04-25 13:54 52.31596 83.06461 40147 ft 461 kts 302°
2026-04-25 13:54 52.35087 82.97823 40150 ft 461 kts 302°
2026-04-25 13:55 52.38612 82.89072 40142 ft 461 kts 302°
2026-04-25 13:55 52.42130 82.80308 40139 ft 460 kts 302°
2026-04-25 13:56 52.45641 82.71529 40133 ft 460 kts 302°
2026-04-25 13:56 52.49144 82.62741 40137 ft 460 kts 302°
2026-04-25 13:57 52.52641 82.53940 40134 ft 460 kts 302°
2026-04-25 13:57 52.56131 82.45123 40133 ft 460 kts 301°
2026-04-25 13:58 52.59611 82.36303 40127 ft 460 kts 301°
2026-04-25 13:58 52.63081 82.27476 40126 ft 459 kts 301°
2026-04-25 13:59 52.66544 82.18636 40129 ft 459 kts 301°
2026-04-25 13:59 52.69975 82.09847 40120 ft 459 kts 301°
2026-04-25 14:00 52.72864 82.02425 40121 ft 459 kts 301°
2026-04-25 14:00 52.76816 81.92232 40119 ft 459 kts 301°
2026-04-25 14:01 52.80248 81.83353 40110 ft 459 kts 301°
2026-04-25 14:01 52.83771 81.74554 40114 ft 459 kts 305°
2026-04-25 14:02 52.87971 81.66565 40103 ft 460 kts 310°
2026-04-25 14:02 52.92317 81.58762 40103 ft 461 kts 310°
2026-04-25 14:03 52.96651 81.50922 40117 ft 461 kts 310°
2026-04-25 14:03 53.00958 81.43045 40100 ft 461 kts 310°
2026-04-25 14:04 53.05257 81.35135 40097 ft 461 kts 310°
2026-04-25 14:04 53.09551 81.27206 40094 ft 461 kts 310°
2026-04-25 14:05 53.13838 81.19263 40087 ft 461 kts 310°
2026-04-25 14:05 53.18124 81.11301 40102 ft 461 kts 309°
2026-04-25 14:06 53.21683 81.04670 40091 ft 462 kts 309°
2026-04-25 14:06 53.25902 80.96784 40079 ft 462 kts 309°
2026-04-25 14:07 53.30171 80.88779 40080 ft 461 kts 309°
2026-04-25 14:07 53.34437 80.80756 40087 ft 461 kts 309°
2026-04-25 14:08 53.38694 80.72722 40090 ft 461 kts 309°
2026-04-25 14:08 53.42947 80.64671 40070 ft 461 kts 309°
2026-04-25 14:09 53.47198 80.56595 40082 ft 462 kts 309°
2026-04-25 14:09 53.51444 80.48502 40080 ft 462 kts 309°
2026-04-25 14:10 53.55689 80.40385 40077 ft 462 kts 309°
2026-04-25 14:10 53.59925 80.32259 40060 ft 462 kts 309°
2026-04-25 14:11 53.64133 80.24158 40073 ft 462 kts 309°
2026-04-25 14:11 53.68359 80.15997 40060 ft 462 kts 309°
2026-04-25 14:12 53.72577 80.07825 40058 ft 462 kts 308°
2026-04-25 14:12 53.76732 79.99746 40037 ft 462 kts 308°
2026-04-25 14:13 53.80942 79.91536 40039 ft 462 kts 308°
2026-04-25 14:13 53.85154 79.83292 40040 ft 463 kts 308°
2026-04-25 14:14 53.89361 79.75030 40039 ft 463 kts 308°
2026-04-25 14:14 53.93565 79.66746 40030 ft 463 kts 308°
2026-04-25 14:15 53.97770 79.58436 40022 ft 463 kts 308°
2026-04-25 14:15 54.01960 79.50126 40022 ft 463 kts 308°
2026-04-25 14:16 54.06145 79.41795 40026 ft 463 kts 308°
2026-04-25 14:16 54.10328 79.33438 40007 ft 463 kts 308°
2026-04-25 14:17 54.14502 79.25071 40004 ft 463 kts 308°
2026-04-25 14:17 54.18664 79.16699 40000 ft 462 kts 308°
2026-04-25 14:18 54.22822 79.08307 40000 ft 462 kts 308°
2026-04-25 14:18 54.26957 78.99935 40010 ft 462 kts 307°
2026-04-25 14:19 54.31028 78.91662 39994 ft 462 kts 307°
2026-04-25 14:19 54.35162 78.83233 39980 ft 462 kts 307°
2026-04-25 14:20 54.39287 78.74793 39981 ft 462 kts 307°
2026-04-25 14:20 54.43404 78.66341 39974 ft 461 kts 307°
2026-04-25 14:21 54.47517 78.57867 39985 ft 462 kts 307°
2026-04-25 14:21 54.51624 78.49377 39964 ft 462 kts 307°
2026-04-25 14:22 54.55732 78.40856 39955 ft 462 kts 307°
2026-04-25 14:22 54.59828 78.32329 39959 ft 462 kts 307°
2026-04-25 14:23 54.63916 78.23789 39947 ft 461 kts 307°
2026-04-25 14:23 54.68000 78.15229 39945 ft 461 kts 307°
2026-04-25 14:24 54.72077 78.06652 39950 ft 462 kts 306°
2026-04-25 14:24 54.76096 77.98168 39938 ft 462 kts 306°
2026-04-25 14:25 54.80161 77.89557 39925 ft 461 kts 306°
2026-04-25 14:25 54.84214 77.80941 39931 ft 461 kts 306°
2026-04-25 14:26 54.88261 77.72311 39918 ft 461 kts 306°
2026-04-25 14:26 54.91837 77.63173 39928 ft 455 kts 294°
2026-04-25 14:27 54.94115 77.52972 39910 ft 451 kts 282°
2026-04-25 14:27 54.95534 77.42344 39916 ft 451 kts 281°
2026-04-25 14:28 54.96890 77.31672 39911 ft 452 kts 281°
2026-04-25 14:28 54.98271 77.20989 39908 ft 453 kts 281°
2026-04-25 14:29 54.99668 77.10295 39901 ft 453 kts 281°
2026-04-25 14:29 55.01046 76.99726 39896 ft 453 kts 281°
2026-04-25 14:30 55.02428 76.89043 39892 ft 453 kts 281°
2026-04-25 14:30 55.04486 76.72972 39895 ft 452 kts 280°
2026-04-25 14:31 55.05844 76.62259 39891 ft 453 kts 280°
2026-04-25 14:31 55.07187 76.51580 39880 ft 453 kts 280°
2026-04-25 14:32 55.08531 76.40822 39879 ft 454 kts 280°
2026-04-25 14:32 55.09863 76.30069 39877 ft 453 kts 280°
2026-04-25 14:33 55.11187 76.19301 39869 ft 453 kts 280°
2026-04-25 14:33 55.12501 76.08529 39872 ft 454 kts 279°
2026-04-25 14:34 55.13793 75.97857 39862 ft 454 kts 279°
2026-04-25 14:34 55.15089 75.87057 39865 ft 454 kts 279°
2026-04-25 14:35 55.16378 75.76246 39862 ft 454 kts 279°
2026-04-25 14:35 55.17657 75.65433 39864 ft 454 kts 279°
2026-04-25 14:36 55.18928 75.54614 39891 ft 454 kts 279°
2026-04-25 14:36 55.20191 75.43789 39861 ft 454 kts 279°
2026-04-25 14:37 55.21447 75.32950 39859 ft 453 kts 279°
2026-04-25 14:37 55.22686 75.22155 39862 ft 452 kts 279°
2026-04-25 14:38 55.23917 75.11348 39859 ft 452 kts 279°
2026-04-25 14:38 55.25129 75.00615 39855 ft 452 kts 279°
2026-04-25 14:39 55.26325 74.89938 39865 ft 452 kts 278°
2026-04-25 14:39 55.27524 74.79130 39869 ft 451 kts 278°
2026-04-25 14:40 55.28714 74.68327 39863 ft 451 kts 278°
2026-04-25 14:40 55.29893 74.57523 39864 ft 451 kts 278°
2026-04-25 14:41 55.31063 74.46710 39866 ft 451 kts 278°
2026-04-25 14:41 55.32223 74.35890 39878 ft 451 kts 278°
2026-04-25 14:42 55.32994 74.28647 39877 ft 451 kts 278°
2026-04-25 14:42 55.34514 74.14234 39867 ft 451 kts 278°
2026-04-25 14:43 55.35646 74.03404 39867 ft 451 kts 278°
2026-04-25 14:43 55.36756 73.92692 39867 ft 451 kts 278°
2026-04-25 14:44 55.37871 73.81845 39872 ft 451 kts 278°
2026-04-25 14:44 55.38983 73.70998 39884 ft 451 kts 277°
2026-04-25 14:45 55.40085 73.60148 39870 ft 450 kts 277°
2026-04-25 14:45 55.41177 73.49290 39861 ft 450 kts 277°
2026-04-25 14:46 55.42258 73.38438 39862 ft 450 kts 277°
2026-04-25 14:46 55.43329 73.27588 39868 ft 450 kts 277°
2026-04-25 14:47 55.44031 73.20408 39864 ft 450 kts 277°
2026-04-25 14:47 55.45435 73.05950 39860 ft 450 kts 277°
2026-04-25 14:48 55.46463 72.95201 39851 ft 449 kts 277°
2026-04-25 14:48 55.47480 72.84354 39856 ft 449 kts 276°
2026-04-25 14:49 55.48325 72.75258 39854 ft 448 kts 276°
2026-04-25 14:49 55.49325 72.64410 39853 ft 448 kts 276°
2026-04-25 14:50 55.50317 72.53548 39846 ft 448 kts 276°
2026-04-25 14:50 55.51298 72.42689 39846 ft 448 kts 276°
2026-04-25 14:51 55.52271 72.31818 39850 ft 448 kts 276°
2026-04-25 14:51 55.53232 72.20956 39855 ft 448 kts 276°
2026-04-25 14:52 55.54186 72.10072 39841 ft 449 kts 276°
2026-04-25 14:52 55.54970 72.01030 39840 ft 448 kts 276°
2026-04-25 14:53 55.56048 71.88484 39838 ft 448 kts 276°
2026-04-25 14:53 55.56970 71.77619 39839 ft 447 kts 275°
2026-04-25 14:54 55.57881 71.66756 39831 ft 446 kts 275°
2026-04-25 14:54 55.58781 71.55910 39826 ft 446 kts 275°
2026-04-25 14:55 55.59671 71.45068 39828 ft 445 kts 275°
2026-04-25 14:55 55.60553 71.34228 39825 ft 445 kts 275°
2026-04-25 14:56 55.61364 71.23366 39841 ft 444 kts 271°
2026-04-25 14:56 55.61387 71.12502 39825 ft 441 kts 265°
2026-04-25 14:57 55.61154 71.01649 39817 ft 441 kts 265°
2026-04-25 14:57 55.60928 70.90921 39820 ft 441 kts 265°
2026-04-25 14:58 55.60706 70.80060 39824 ft 442 kts 265°
2026-04-25 14:58 55.60482 70.69195 39821 ft 442 kts 265°
2026-04-25 14:59 55.60249 70.58339 39825 ft 442 kts 264°
2026-04-25 14:59 55.60005 70.47490 39811 ft 441 kts 264°
2026-04-25 15:00 55.59752 70.36664 39809 ft 440 kts 264°
2026-04-25 15:00 55.59490 70.25846 39807 ft 440 kts 264°
2026-04-25 15:01 55.59218 70.15048 39804 ft 439 kts 264°
2026-04-25 15:01 55.58937 70.04259 39812 ft 440 kts 263°
2026-04-25 15:02 55.58652 69.93648 39799 ft 441 kts 263°
2026-04-25 15:02 55.58351 69.82806 39796 ft 442 kts 263°
2026-04-25 15:03 55.58040 69.71958 39801 ft 442 kts 263°
2026-04-25 15:03 55.57720 69.61115 39795 ft 442 kts 263°
2026-04-25 15:04 55.57390 69.50267 39796 ft 442 kts 263°
2026-04-25 15:04 55.57050 69.39399 39795 ft 444 kts 263°
2026-04-25 15:05 55.56700 69.28494 39796 ft 445 kts 262°
2026-04-25 15:06 55.56237 69.12076 39788 ft 447 kts 264°
2026-04-25 15:06 55.56129 69.01082 39790 ft 447 kts 265°
2026-04-25 15:07 55.56020 68.90194 39815 ft 449 kts 264°
2026-04-25 15:07 55.55872 68.79128 39797 ft 451 kts 264°
2026-04-25 15:08 55.55706 68.68109 39784 ft 452 kts 264°
2026-04-25 15:08 55.55527 68.56985 39793 ft 452 kts 264°
2026-04-25 15:09 55.55338 68.45870 39784 ft 452 kts 264°
2026-04-25 15:09 55.55037 68.29228 39793 ft 452 kts 264°
2026-04-25 15:10 55.54825 68.18147 39793 ft 451 kts 264°
2026-04-25 15:11 55.54490 68.01546 39788 ft 451 kts 264°
2026-04-25 15:11 55.54307 67.90612 39777 ft 451 kts 264°
2026-04-25 15:12 55.54059 67.74016 39785 ft 451 kts 264°
2026-04-25 15:12 55.53937 67.66614 39788 ft 451 kts 264°
2026-04-25 15:13 55.53572 67.46329 39780 ft 452 kts 264°
2026-04-25 15:14 55.53357 67.35244 39780 ft 452 kts 264°
2026-04-25 15:14 55.53132 67.24134 39785 ft 453 kts 264°
2026-04-25 15:15 55.52897 67.13015 39796 ft 453 kts 264°
2026-04-25 15:15 55.52652 67.01885 39787 ft 454 kts 263°
2026-04-25 15:16 55.52400 66.90891 39771 ft 454 kts 263°
2026-04-25 15:16 55.51998 66.74202 39769 ft 453 kts 263°
2026-04-25 15:17 55.51574 66.57529 39780 ft 453 kts 263°
2026-04-25 15:18 55.51282 66.46498 39770 ft 453 kts 263°
2026-04-25 15:18 55.50805 66.29851 39770 ft 453 kts 263°
2026-04-25 15:19 55.50550 66.22432 39772 ft 453 kts 262°
2026-04-25 15:19 55.50023 66.07697 39770 ft 452 kts 262°
2026-04-25 15:20 55.49628 65.96738 39774 ft 453 kts 262°
2026-04-25 15:20 55.49221 65.85655 39778 ft 453 kts 262°
2026-04-25 15:21 55.48804 65.74570 39775 ft 453 kts 262°
2026-04-25 15:21 55.48377 65.63486 39782 ft 453 kts 262°
2026-04-25 15:22 55.47940 65.52388 39769 ft 454 kts 262°
2026-04-25 15:22 55.47511 65.41290 39767 ft 454 kts 263°
2026-04-25 15:23 55.47493 65.30119 39769 ft 456 kts 266°
2026-04-25 15:23 55.47559 65.18921 39762 ft 457 kts 266°
2026-04-25 15:24 55.47596 65.07732 39753 ft 457 kts 266°
2026-04-25 15:24 55.47607 65.00316 39754 ft 457 kts 265°
2026-04-25 15:25 55.47610 64.85505 39753 ft 457 kts 265°
2026-04-25 15:25 55.47604 64.74313 39763 ft 457 kts 265°
2026-04-25 15:26 55.47574 64.63118 39751 ft 457 kts 265°
2026-04-25 15:26 55.47526 64.51911 39743 ft 457 kts 265°
2026-04-25 15:27 55.47486 64.40696 39737 ft 457 kts 265°
2026-04-25 15:28 55.47488 64.23863 39741 ft 459 kts 265°
2026-04-25 15:28 55.47475 64.12626 39759 ft 458 kts 265°
2026-04-25 15:29 55.47447 64.01450 39735 ft 459 kts 265°
2026-04-25 15:29 55.47411 63.90380 39731 ft 459 kts 265°
2026-04-25 15:30 55.47358 63.79141 39728 ft 458 kts 265°
2026-04-25 15:30 55.47291 63.67909 39723 ft 458 kts 265°
2026-04-25 15:31 55.47215 63.56682 39726 ft 458 kts 265°
2026-04-25 15:31 55.47130 63.45432 39722 ft 459 kts 265°
2026-04-25 15:32 55.47034 63.34186 39716 ft 459 kts 264°
2026-04-25 15:32 55.46947 63.24833 39716 ft 459 kts 264°
2026-04-25 15:33 55.46754 63.06108 39712 ft 459 kts 264°
2026-04-25 15:33 55.46334 62.95085 39710 ft 456 kts 259°
2026-04-25 15:34 55.45691 62.85785 39717 ft 457 kts 259°
2026-04-25 15:34 55.45034 62.76557 39713 ft 457 kts 259°
2026-04-25 15:35 55.43735 62.58004 39709 ft 457 kts 259°
2026-04-25 15:36 55.42568 62.41410 39709 ft 457 kts 259°
2026-04-25 15:36 55.41772 62.30301 39716 ft 457 kts 259°
2026-04-25 15:37 55.40966 62.19196 39703 ft 458 kts 258°
2026-04-25 15:37 55.40149 62.08081 39699 ft 458 kts 258°
2026-04-25 15:38 55.39335 61.97145 39701 ft 458 kts 258°
2026-04-25 15:38 55.38499 61.86051 39692 ft 458 kts 258°
2026-04-25 15:39 55.37653 61.74951 39712 ft 458 kts 258°
2026-04-25 15:39 55.36796 61.63848 39686 ft 458 kts 258°
2026-04-25 15:40 55.36073 61.54627 39697 ft 458 kts 258°
2026-04-25 15:40 55.35042 61.41667 39695 ft 458 kts 258°
2026-04-25 15:41 55.34150 61.30581 39700 ft 459 kts 258°
2026-04-25 15:41 55.33249 61.19486 39697 ft 459 kts 258°
2026-04-25 15:42 55.32343 61.08465 39702 ft 460 kts 258°
2026-04-25 15:42 55.31432 60.97513 39688 ft 460 kts 258°
2026-04-25 15:43 55.30500 60.86421 39687 ft 460 kts 258°
2026-04-25 15:43 55.29556 60.75321 39685 ft 459 kts 258°
2026-04-25 15:44 55.28604 60.64245 39695 ft 459 kts 258°
2026-04-25 15:44 55.27643 60.53186 39697 ft 459 kts 257°
2026-04-25 15:45 55.26670 60.42117 39695 ft 459 kts 257°
2026-04-25 15:45 55.25855 60.32929 39694 ft 459 kts 257°
2026-04-25 15:46 55.24697 60.19996 39698 ft 459 kts 257°
2026-04-25 15:46 55.23783 60.08920 39698 ft 460 kts 260°
2026-04-25 15:47 55.23200 59.97850 39717 ft 462 kts 261°
2026-04-25 15:47 55.22625 59.86650 39709 ft 462 kts 261°
2026-04-25 15:48 55.22012 59.75454 39712 ft 462 kts 261°
2026-04-25 15:48 55.21782 59.64179 39713 ft 467 kts 268°
2026-04-25 15:49 55.22110 59.52817 39710 ft 468 kts 269°
2026-04-25 15:49 55.22446 59.41436 39704 ft 468 kts 269°
2026-04-25 15:50 55.22748 59.30052 39715 ft 468 kts 269°
2026-04-25 15:50 55.23024 59.18727 39715 ft 469 kts 269°
2026-04-25 15:51 55.23246 59.09160 39712 ft 469 kts 268°
2026-04-25 15:51 55.23540 58.96061 39712 ft 468 kts 268°
2026-04-25 15:52 55.23786 58.84661 39715 ft 468 kts 268°
2026-04-25 15:52 55.24020 58.73267 39721 ft 468 kts 268°
2026-04-25 15:53 55.24243 58.61859 39716 ft 469 kts 268°
2026-04-25 15:53 55.24457 58.50433 39708 ft 469 kts 268°
2026-04-25 15:54 55.24661 58.38989 39713 ft 469 kts 268°
2026-04-25 15:54 55.24853 58.27562 39717 ft 469 kts 268°
2026-04-25 15:55 55.25037 58.16115 39713 ft 469 kts 268°
2026-04-25 15:55 55.25475 58.04691 39722 ft 471 kts 272°
2026-04-25 15:56 55.26178 57.93432 39716 ft 472 kts 273°
2026-04-25 15:56 55.26887 57.81993 39718 ft 472 kts 272°
2026-04-25 15:57 55.27562 57.70538 39726 ft 472 kts 272°
2026-04-25 15:57 55.28214 57.59147 39713 ft 472 kts 272°
2026-04-25 15:58 55.28864 57.47603 39710 ft 472 kts 272°
2026-04-25 15:58 55.29495 57.36204 39728 ft 472 kts 272°
2026-04-25 15:59 55.30122 57.24729 39717 ft 472 kts 272°
2026-04-25 15:59 55.30737 57.13259 39719 ft 472 kts 272°
2026-04-25 16:00 55.31138 57.05586 39720 ft 472 kts 272°
2026-04-25 16:00 55.31915 56.90470 39735 ft 472 kts 272°
2026-04-25 16:01 55.32494 56.78975 39726 ft 473 kts 272°
2026-04-25 16:01 55.33062 56.67471 39704 ft 473 kts 272°
2026-04-25 16:02 55.33621 56.55948 39706 ft 474 kts 272°
2026-04-25 16:02 55.34170 56.44411 39711 ft 474 kts 272°
2026-04-25 16:03 55.34708 56.32875 39700 ft 474 kts 272°
2026-04-25 16:03 55.35235 56.21329 39698 ft 474 kts 272°
2026-04-25 16:04 55.35751 56.09779 39693 ft 474 kts 272°
2026-04-25 16:04 55.36249 55.98378 39693 ft 474 kts 272°
2026-04-25 16:05 55.36743 55.86816 39687 ft 475 kts 272°
2026-04-25 16:06 55.37467 55.69440 39686 ft 475 kts 272°
2026-04-25 16:06 55.37936 55.57848 39688 ft 475 kts 272°
2026-04-25 16:07 55.38393 55.46249 39692 ft 476 kts 272°
2026-04-25 16:07 55.38842 55.34635 39666 ft 475 kts 272°
2026-04-25 16:08 55.39271 55.23037 39670 ft 475 kts 271°
2026-04-25 16:08 55.39475 55.11511 39676 ft 475 kts 270°
2026-04-25 16:09 55.39604 54.99914 39662 ft 476 kts 270°
2026-04-25 16:09 55.39761 54.88401 39659 ft 477 kts 270°
2026-04-25 16:10 55.39922 54.76732 39657 ft 477 kts 270°
2026-04-25 16:10 55.40090 54.65055 39646 ft 477 kts 270°
2026-04-25 16:11 55.40256 54.53384 39652 ft 477 kts 270°
2026-04-25 16:11 55.40409 54.41733 39648 ft 476 kts 270°
2026-04-25 16:12 55.40549 54.30119 39649 ft 475 kts 270°
2026-04-25 16:12 55.40678 54.18517 39650 ft 474 kts 270°
2026-04-25 16:13 55.40797 54.06936 39638 ft 473 kts 270°
2026-04-25 16:13 55.40882 53.95519 39634 ft 473 kts 270°
2026-04-25 16:14 55.40942 53.84010 39632 ft 473 kts 270°
2026-04-25 16:14 55.40996 53.72425 39641 ft 474 kts 270°
2026-04-25 16:15 55.41042 53.60832 39639 ft 474 kts 270°
2026-04-25 16:15 55.41078 53.49228 39625 ft 474 kts 270°
2026-04-25 16:16 55.41104 53.37620 39636 ft 474 kts 269°
2026-04-25 16:16 55.41140 53.26010 39645 ft 475 kts 270°
2026-04-25 16:17 55.41176 53.14369 39623 ft 476 kts 270°
2026-04-25 16:17 55.41199 53.02707 39626 ft 476 kts 270°
2026-04-25 16:18 55.41209 52.91200 39630 ft 477 kts 269°
2026-04-25 16:18 55.41210 52.81496 39634 ft 476 kts 269°
2026-04-25 16:19 55.41201 52.69843 39616 ft 476 kts 269°
2026-04-25 16:19 55.41168 52.58205 39629 ft 476 kts 269°
2026-04-25 16:20 55.41092 52.40747 39633 ft 475 kts 270°
2026-04-25 16:21 55.40995 52.23315 39640 ft 475 kts 269°
2026-04-25 16:21 55.40917 52.11708 39642 ft 474 kts 269°
2026-04-25 16:22 55.40829 52.00094 39627 ft 474 kts 269°
2026-04-25 16:22 55.40731 51.88670 39628 ft 474 kts 269°
2026-04-25 16:23 55.40621 51.77072 39639 ft 474 kts 269°
2026-04-25 16:23 55.40499 51.65487 39630 ft 473 kts 269°
2026-04-25 16:24 55.40367 51.53907 39632 ft 473 kts 269°
2026-04-25 16:24 55.40225 51.42342 39644 ft 473 kts 269°
2026-04-25 16:25 55.40071 51.30771 39651 ft 473 kts 269°
2026-04-25 16:25 55.39909 51.19204 39646 ft 473 kts 269°
2026-04-25 16:26 55.39751 51.07710 39628 ft 473 kts 270°
2026-04-25 16:26 55.39694 50.96333 39644 ft 472 kts 270°
2026-04-25 16:27 55.39650 50.84782 39638 ft 472 kts 270°
2026-04-25 16:27 55.39582 50.73223 39657 ft 472 kts 270°
2026-04-25 16:28 55.39494 50.61669 39669 ft 472 kts 270°
2026-04-25 16:28 55.39394 50.50109 39646 ft 473 kts 269°
2026-04-25 16:29 55.39283 50.38533 39645 ft 473 kts 269°
2026-04-25 16:29 55.39162 50.26983 39648 ft 472 kts 269°
2026-04-25 16:30 55.39032 50.15438 39652 ft 472 kts 269°
2026-04-25 16:30 55.38892 50.03989 39658 ft 471 kts 269°
2026-04-25 16:31 55.38953 49.92627 39653 ft 471 kts 275°
2026-04-25 16:31 55.39539 49.81159 39648 ft 471 kts 276°
2026-04-25 16:32 55.40139 49.69687 39644 ft 471 kts 275°
2026-04-25 16:32 55.40696 49.58191 39638 ft 471 kts 275°
2026-04-25 16:33 55.41232 49.46715 39649 ft 471 kts 275°
2026-04-25 16:33 55.41759 49.35236 39657 ft 470 kts 275°
2026-04-25 16:34 55.42275 49.23754 39658 ft 470 kts 275°
2026-04-25 16:34 55.42781 49.12278 39657 ft 470 kts 275°
2026-04-25 16:35 55.43277 49.00793 39661 ft 470 kts 275°
2026-04-25 16:35 55.43757 48.89454 39661 ft 470 kts 275°
2026-04-25 16:36 55.44231 48.77975 39655 ft 469 kts 275°
2026-04-25 16:36 55.44694 48.66518 39659 ft 469 kts 275°
2026-04-25 16:37 55.45148 48.55075 39650 ft 468 kts 275°
2026-04-25 16:37 55.45586 48.43706 39663 ft 468 kts 275°
2026-04-25 16:38 55.46019 48.32252 39657 ft 468 kts 275°
2026-04-25 16:38 55.46442 48.20799 39666 ft 468 kts 275°
2026-04-25 16:39 55.46854 48.09346 39673 ft 469 kts 274°
2026-04-25 16:39 55.47250 47.98041 39652 ft 468 kts 274°
2026-04-25 16:40 55.47641 47.86598 39659 ft 467 kts 274°
2026-04-25 16:40 55.48020 47.75177 39667 ft 466 kts 274°
2026-04-25 16:41 55.48388 47.63754 39672 ft 466 kts 274°
2026-04-25 16:41 55.48921 47.46609 39688 ft 467 kts 274°
2026-04-25 16:42 55.49263 47.35184 39680 ft 467 kts 274°
2026-04-25 16:42 55.49595 47.23751 39652 ft 467 kts 274°
2026-04-25 16:43 55.49917 47.12327 39671 ft 466 kts 274°
2026-04-25 16:43 55.50239 47.00903 39679 ft 466 kts 274°
2026-04-25 16:44 55.50554 46.89639 39688 ft 467 kts 274°
2026-04-25 16:44 55.50863 46.78191 39680 ft 467 kts 273°
2026-04-25 16:45 55.51160 46.66753 39696 ft 467 kts 273°
2026-04-25 16:45 55.51447 46.55296 39691 ft 467 kts 273°
2026-04-25 16:46 55.51726 46.43847 39689 ft 466 kts 273°
2026-04-25 16:46 55.51977 46.36282 39688 ft 466 kts 274°
2026-04-25 16:47 55.52590 46.21087 39695 ft 466 kts 275°
2026-04-25 16:47 55.53033 46.09673 39694 ft 466 kts 274°
2026-04-25 16:48 55.53444 45.98413 39692 ft 466 kts 274°
2026-04-25 16:48 55.53846 45.86984 39708 ft 466 kts 274°
2026-04-25 16:49 55.54237 45.75551 39701 ft 466 kts 274°
2026-04-25 16:49 55.54618 45.64109 39697 ft 466 kts 274°
2026-04-25 16:50 55.54988 45.52667 39691 ft 466 kts 274°
2026-04-25 16:50 55.55348 45.41243 39698 ft 466 kts 273°
2026-04-25 16:51 55.55697 45.29813 39702 ft 466 kts 273°
2026-04-25 16:51 55.55922 45.22243 39707 ft 466 kts 273°
2026-04-25 16:52 55.56362 45.07001 39703 ft 467 kts 273°
2026-04-25 16:52 55.56677 44.95701 39705 ft 467 kts 273°
2026-04-25 16:53 55.57137 44.78520 39707 ft 467 kts 273°
2026-04-25 16:54 55.57436 44.67060 39696 ft 467 kts 273°
2026-04-25 16:54 55.57726 44.55590 39708 ft 467 kts 273°
2026-04-25 16:55 55.58005 44.44116 39719 ft 467 kts 272°
2026-04-25 16:55 55.58273 44.32634 39710 ft 468 kts 272°
2026-04-25 16:56 55.58530 44.21147 39714 ft 468 kts 272°
2026-04-25 16:56 55.58777 44.09660 39712 ft 468 kts 272°
2026-04-25 16:57 55.59010 43.98318 39714 ft 468 kts 272°
2026-04-25 16:57 55.59237 43.86828 39715 ft 468 kts 272°
2026-04-25 16:58 55.59442 43.75331 39722 ft 468 kts 271°
2026-04-25 16:58 55.59499 43.63820 39727 ft 468 kts 270°
2026-04-25 16:59 55.59500 43.52300 39722 ft 469 kts 270°
2026-04-25 16:59 55.59504 43.40779 39720 ft 468 kts 270°
2026-04-25 17:00 55.59512 43.29342 39725 ft 468 kts 270°
2026-04-25 17:00 55.59513 43.17822 39727 ft 468 kts 270°
2026-04-25 17:01 55.59502 43.06315 39717 ft 468 kts 270°
2026-04-25 17:01 55.59480 42.94951 39721 ft 468 kts 270°
2026-04-25 17:02 55.59447 42.83441 39728 ft 468 kts 270°
2026-04-25 17:02 55.59403 42.71923 39728 ft 468 kts 270°
2026-04-25 17:03 55.59349 42.60400 39727 ft 468 kts 270°
2026-04-25 17:03 55.59283 42.48886 39726 ft 468 kts 269°
2026-04-25 17:04 55.59221 42.39321 39731 ft 468 kts 269°
2026-04-25 17:04 55.59136 42.27808 39713 ft 468 kts 269°
2026-04-25 17:05 55.59040 42.16303 39722 ft 467 kts 269°
2026-04-25 17:05 55.58879 41.99234 39727 ft 467 kts 269°
2026-04-25 17:06 55.58759 41.87766 39730 ft 467 kts 269°
2026-04-25 17:06 55.58625 41.76296 39727 ft 467 kts 269°
2026-04-25 17:07 55.58478 41.64820 39718 ft 467 kts 269°
2026-04-25 17:07 55.58320 41.53350 39724 ft 467 kts 269°
2026-04-25 17:08 55.58154 41.41874 39722 ft 467 kts 269°
2026-04-25 17:08 55.57979 41.30410 39725 ft 466 kts 269°
2026-04-25 17:09 55.57787 41.18943 39720 ft 466 kts 269°
2026-04-25 17:09 55.57578 41.07494 39719 ft 466 kts 268°
2026-04-25 17:10 55.57361 40.96185 39717 ft 467 kts 268°
2026-04-25 17:10 55.57133 40.84719 39474 ft 470 kts 268°
2026-04-25 17:11 55.57016 40.79001 38853 ft 472 kts 268°
2026-04-25 17:11 55.56894 40.73213 38065 ft 472 kts 268°
2026-04-25 17:11 55.56769 40.67426 37149 ft 471 kts 268°
2026-04-25 17:11 55.56641 40.61584 36277 ft 469 kts 268°
2026-04-25 17:12 55.56515 40.55915 35414 ft 467 kts 269°
2026-04-25 17:12 55.56384 40.50188 34507 ft 466 kts 269°
2026-04-25 17:12 55.56248 40.44413 33480 ft 465 kts 269°
2026-04-25 17:12 55.56102 40.38808 32615 ft 458 kts 268°
2026-04-25 17:13 55.55953 40.33400 31925 ft 429 kts 268°
2026-04-25 17:13 55.55854 40.29852 31460 ft 427 kts 268°
2026-04-25 17:13 55.55662 40.22956 30527 ft 422 kts 268°
2026-04-25 17:13 55.55519 40.17812 29845 ft 418 kts 268°
2026-04-25 17:14 55.55375 40.12713 29062 ft 413 kts 268°
2026-04-25 17:14 55.55231 40.07676 28264 ft 407 kts 268°
2026-04-25 17:14 55.55086 40.02727 27571 ft 400 kts 268°
2026-04-25 17:14 55.55002 39.97984 26931 ft 393 kts 272°
2026-04-25 17:15 55.55184 39.93218 26607 ft 385 kts 276°
2026-04-25 17:15 55.55478 39.88566 26502 ft 375 kts 277°
2026-04-25 17:15 55.55778 39.84047 26405 ft 365 kts 276°
2026-04-25 17:15 55.56054 39.79643 26279 ft 357 kts 276°
2026-04-25 17:16 55.56306 39.75298 26092 ft 354 kts 276°
2026-04-25 17:16 55.56544 39.70974 25831 ft 354 kts 275°
2026-04-25 17:16 55.56773 39.66644 25566 ft 353 kts 275°
2026-04-25 17:16 55.56998 39.62335 25294 ft 351 kts 275°
2026-04-25 17:17 55.57219 39.58051 25028 ft 349 kts 275°
2026-04-25 17:17 55.57437 39.53794 24761 ft 348 kts 275°
2026-04-25 17:17 55.57667 39.49550 24497 ft 346 kts 276°
2026-04-25 17:17 55.57935 39.45326 24233 ft 345 kts 276°
2026-04-25 17:18 55.58210 39.41173 23973 ft 344 kts 276°
2026-04-25 17:18 55.58488 39.36981 23707 ft 343 kts 276°
2026-04-25 17:18 55.58761 39.32804 23443 ft 342 kts 276°
2026-04-25 17:18 55.59031 39.28627 23171 ft 341 kts 276°
2026-04-25 17:19 55.59296 39.24475 22889 ft 339 kts 276°
2026-04-25 17:19 55.59557 39.20339 22602 ft 338 kts 276°
2026-04-25 17:19 55.59815 39.16222 22334 ft 336 kts 276°
2026-04-25 17:19 55.60070 39.12124 22081 ft 335 kts 276°
2026-04-25 17:20 55.60324 39.08038 21809 ft 334 kts 276°
2026-04-25 17:20 55.60575 39.03965 21539 ft 333 kts 276°
2026-04-25 17:20 55.60822 38.99941 21312 ft 332 kts 276°
2026-04-25 17:20 55.61064 38.95979 21053 ft 331 kts 276°
2026-04-25 17:21 55.61309 38.91932 20801 ft 330 kts 276°
2026-04-25 17:21 55.61550 38.87889 20533 ft 330 kts 275°
2026-04-25 17:21 55.61770 38.83842 20242 ft 331 kts 275°
2026-04-25 17:21 55.61983 38.79789 19954 ft 331 kts 275°
2026-04-25 17:22 55.62194 38.75746 19648 ft 330 kts 275°
2026-04-25 17:22 55.62334 38.73082 19451 ft 326 kts 275°
2026-04-25 17:22 55.62608 38.67852 19085 ft 319 kts 275°
2026-04-25 17:22 55.62810 38.63954 18813 ft 318 kts 275°
2026-04-25 17:23 55.63011 38.60065 18605 ft 316 kts 275°
2026-04-25 17:23 55.63202 38.56220 18448 ft 313 kts 275°
2026-04-25 17:23 55.63391 38.52378 18268 ft 314 kts 275°
2026-04-25 17:23 55.63581 38.48504 18110 ft 317 kts 275°
2026-04-25 17:24 55.63772 38.44611 17952 ft 317 kts 275°
2026-04-25 17:24 55.63957 38.40783 17792 ft 306 kts 275°
2026-04-25 17:24 55.64145 38.37108 17705 ft 291 kts 278°
2026-04-25 17:24 55.64657 38.33622 17666 ft 292 kts 281°
2026-04-25 17:25 55.64802 38.30025 17669 ft 294 kts 269°
2026-04-25 17:25 55.64793 38.26397 17660 ft 293 kts 271°
2026-04-25 17:25 55.64814 38.22800 17496 ft 291 kts 271°
2026-04-25 17:25 55.64839 38.19171 16946 ft 299 kts 271°
2026-04-25 17:26 55.64862 38.15468 16354 ft 301 kts 271°
2026-04-25 17:26 55.64885 38.11762 15890 ft 299 kts 270°
2026-04-25 17:26 55.64905 38.08154 15776 ft 287 kts 270°
2026-04-25 17:26 55.64923 38.04645 15593 ft 285 kts 270°
2026-04-25 17:27 55.64940 38.01138 15364 ft 284 kts 270°
2026-04-25 17:27 55.64955 37.97790 15179 ft 283 kts 270°
2026-04-25 17:27 55.64884 37.94346 14949 ft 277 kts 259°
2026-04-25 17:27 55.64715 37.93231 14889 ft 278 kts 251°
2026-04-25 17:28 55.62707 37.88756 14543 ft 287 kts 218°
2026-04-25 17:28 55.60935 37.87161 14308 ft 294 kts 202°
2026-04-25 17:28 55.58889 37.86767 14095 ft 300 kts 184°
2026-04-25 17:28 55.56795 37.86869 13850 ft 301 kts 182°
2026-04-25 17:29 55.54739 37.87610 13581 ft 310 kts 159°
2026-04-25 17:29 55.52909 37.89712 13263 ft 317 kts 146°
2026-04-25 17:29 55.51126 37.92123 12937 ft 319 kts 146°
2026-04-25 17:29 55.49385 37.94457 12627 ft 318 kts 146°
2026-04-25 17:30 55.47634 37.96777 12313 ft 312 kts 147°
2026-04-25 17:30 55.45903 37.99027 11994 ft 307 kts 147°
2026-04-25 17:30 55.44189 38.01241 11710 ft 306 kts 147°
2026-04-25 17:30 55.42471 38.03455 11439 ft 305 kts 147°
2026-04-25 17:31 55.40760 38.05661 11156 ft 304 kts 147°
2026-04-25 17:31 55.39048 38.07862 10868 ft 305 kts 147°
2026-04-25 17:31 55.37340 38.10061 10564 ft 304 kts 147°
2026-04-25 17:31 55.35634 38.12256 10294 ft 303 kts 147°
2026-04-25 17:32 55.33936 38.14436 10007 ft 301 kts 147°
2026-04-25 17:32 55.32262 38.16587 9751 ft 295 kts 146°
2026-04-25 17:32 55.30622 38.18694 9535 ft 289 kts 146°
2026-04-25 17:32 55.29012 38.20760 9235 ft 285 kts 147°
2026-04-25 17:33 55.27416 38.22802 8902 ft 283 kts 147°
2026-04-25 17:33 55.25826 38.24829 8566 ft 281 kts 148°
2026-04-25 17:33 55.24248 38.26762 8255 ft 279 kts 149°
2026-04-25 17:33 55.22657 38.28672 8061 ft 274 kts 149°
2026-04-25 17:34 55.21088 38.30554 8012 ft 274 kts 149°
2026-04-25 17:34 55.19454 38.32113 8000 ft 263 kts 169°
2026-04-25 17:34 55.17682 38.32278 7958 ft 253 kts 194°
2026-04-25 17:34 55.16010 38.31441 7840 ft 249 kts 202°
2026-04-25 17:35 55.14366 38.30494 7731 ft 247 kts 202°
2026-04-25 17:35 55.12748 38.29536 7602 ft 240 kts 207°
2026-04-25 17:35 55.11456 38.27842 7511 ft 232 kts 236°
2026-04-25 17:35 55.10794 38.25318 7427 ft 230 kts 257°
2026-04-25 17:36 55.10670 38.22554 7315 ft 229 kts 277°
2026-04-25 17:36 55.11027 38.19832 7235 ft 232 kts 283°
2026-04-25 17:36 55.11491 38.17128 7132 ft 230 kts 289°
2026-04-25 17:36 55.12429 38.14880 7037 ft 233 kts 316°
2026-04-25 17:37 55.13865 38.13514 6944 ft 238 kts 336°
2026-04-25 17:37 55.15514 38.13157 6857 ft 244 kts 359°
2026-04-25 17:37 55.17186 38.13568 6783 ft 249 kts
2026-04-25 17:37 55.18906 38.14086 6685 ft 252 kts
2026-04-25 17:38 55.20642 38.14592 6597 ft 252 kts
2026-04-25 17:38 55.21224 38.14757 6555 ft 249 kts
2026-04-25 17:38 55.24036 38.15516 6397 ft 245 kts
2026-04-25 17:38 55.25729 38.15934 6322 ft 246 kts
2026-04-25 17:39 55.27434 38.16350 6237 ft 248 kts
2026-04-25 17:39 55.29148 38.16771 6154 ft 249 kts
2026-04-25 17:39 55.30867 38.17185 6058 ft 246 kts
2026-04-25 17:39 55.32482 38.16812 5901 ft 230 kts 328°
2026-04-25 17:40 55.33803 38.15330 5795 ft 226 kts 320°
2026-04-25 17:40 55.35119 38.13745 5649 ft 232 kts 320°
2026-04-25 17:40 55.36456 38.12157 5508 ft 232 kts 320°
2026-04-25 17:40 55.37791 38.10566 5337 ft 231 kts 320°
2026-04-25 17:41 55.39116 38.08979 5177 ft 230 kts 320°
2026-04-25 17:41 55.40435 38.07399 5035 ft 229 kts 320°
2026-04-25 17:41 55.41749 38.05822 4889 ft 227 kts 320°
2026-04-25 17:41 55.42996 38.04163 4736 ft 221 kts 307°
2026-04-25 17:42 55.43640 38.01782 4625 ft 218 kts 274°
2026-04-25 17:42 55.43479 37.99158 4492 ft 217 kts 249°
2026-04-25 17:42 55.42846 37.96777 4369 ft 215 kts 241°
2026-04-25 17:42 55.42128 37.94504 4201 ft 215 kts 240°
2026-04-25 17:43 55.41400 37.92235 4104 ft 209 kts 241°
2026-04-25 17:43 55.41066 37.89782 4029 ft 216 kts 273°
2026-04-25 17:43 55.41429 37.87164 3999 ft 223 kts 282°
2026-04-25 17:43 55.41856 37.84539 3994 ft 224 kts 282°
2026-04-25 17:44 55.42285 37.81925 4010 ft 221 kts 282°
2026-04-25 17:44 55.42707 37.79328 4000 ft 219 kts 282°
2026-04-25 17:44 55.43125 37.76754 3996 ft 218 kts 282°
2026-04-25 17:44 55.43541 37.74179 3992 ft 218 kts 282°
2026-04-25 17:45 55.43980 37.71633 3979 ft 215 kts 290°
2026-04-25 17:45 55.44225 37.70843 3987 ft 221 kts 303°
2026-04-25 17:45 55.46343 37.68018 3996 ft 235 kts 322°
2026-04-25 17:45 55.47707 37.66437 4006 ft 234 kts 322°
2026-04-25 17:46 55.49071 37.64842 4008 ft 237 kts 322°
2026-04-25 17:46 55.50458 37.63301 3991 ft 232 kts 330°
2026-04-25 17:46 55.52018 37.62800 3963 ft 229 kts
2026-04-25 17:46 55.53469 37.63901 3880 ft 231 kts 40°
2026-04-25 17:47 55.54531 37.66033 3626 ft 229 kts 57°
2026-04-25 17:47 55.55096 37.68564 3419 ft 219 kts 92°
2026-04-25 17:47 55.54754 37.71040 3274 ft 202 kts 128°
2026-04-25 17:47 55.53804 37.72767 3062 ft 196 kts 142°
2026-04-25 17:48 55.51718 37.75608 2666 ft 187 kts 147°
2026-04-25 17:48 55.50662 37.76881 2474 ft 179 kts 148°
2026-04-25 17:48 55.49679 37.78064 2444 ft 165 kts 148°
2026-04-25 17:49 55.48749 37.79189 2210 ft 153 kts 148°
2026-04-25 17:49 55.47939 37.80173 2019 ft 130 kts 147°
2026-04-25 17:49 55.47234 37.81021 1862 ft 118 kts 147°
2026-04-25 17:49 55.46548 37.81849 1708 ft 119 kts 147°
2026-04-25 17:50 55.45873 37.82664 1521 ft 115 kts 147°
2026-04-25 17:50 55.45203 37.83476 1376 ft 119 kts 147°
2026-04-25 17:50 55.44511 37.84307 1217 ft 121 kts 146°
2026-04-25 17:50 55.43818 37.85159 1060 ft 122 kts 146°
2026-04-25 17:51 55.43116 37.86003 898 ft 122 kts 147°
2026-04-25 17:51 55.42416 37.86841 720 ft 122 kts 146°
2026-04-25 17:51 55.41720 37.87691 601 ft 116 kts 146°
2026-04-25 17:51 55.41151 37.88369 585 ft 75 kts 146°
2026-04-25 17:52 55.40850 37.88726 584 ft 41 kts 145°
2026-04-25 17:52 55.40772 37.88821 583 ft 39 kts 145°
2026-04-25 17:52 55.40559 37.89081 579 ft 14 kts 145°
2026-04-25 17:52 55.40491 37.89194 577 ft 14 kts 129°
2026-04-25 17:53 55.40438 37.89331 575 ft 14 kts 120°
2026-04-25 17:53 55.40397 37.89464 574 ft 9 kts 115°
2026-04-25 17:53 55.40394 37.89565 572 ft 9 kts 59°
2026-04-25 17:53 55.40451 37.89568 572 ft 12 kts 327°
2026-04-25 17:54 55.40506 37.89504 576 ft 14 kts 326°
2026-04-25 17:54 55.40587 37.89410 574 ft 11 kts 326°
2026-04-25 17:54 55.40638 37.89353 579 ft 8 kts 337°
2026-04-25 17:54 55.40686 37.89404 579 ft 10 kts 50°
2026-04-25 17:55 55.40728 37.89510 577 ft 10 kts 55°
2026-04-25 17:55 55.40772 37.89588 579 ft 9 kts 23°
2026-04-25 17:55 55.40828 37.89673 580 ft 15 kts 56°
2026-04-25 17:55 55.40885 37.89825 578 ft 15 kts 56°
2026-04-25 17:56 55.40944 37.89975 578 ft 15 kts 54°
2026-04-25 17:56 55.41004 37.90125 578 ft 15 kts 55°
2026-04-25 17:56 55.41039 37.90250 577 ft 11 kts 84°
2026-04-25 17:56 55.41055 37.90380 577 ft 11 kts 60°
2026-04-25 17:57 55.41108 37.90522 577 ft 16 kts 56°
2026-04-25 17:57 55.41168 37.90679 577 ft 14 kts 56°
2026-04-25 17:57 55.41223 37.90821 580 ft 11 kts 56°
2026-04-25 17:57 55.41249 37.90888 578 ft 10 kts 53°
2026-04-25 17:58 55.41329 37.90894 582 ft 10 kts 320°
2026-04-25 17:58 55.41374 37.90803 581 ft 10 kts 308°
2026-04-25 17:58 55.41413 37.90710 584 ft 9 kts 308°
2026-04-25 17:58 55.41461 37.90696 583 ft 7 kts 27°
2026-04-25 17:59 55.41491 37.90730 583 ft 2 kts 34°
2026-04-25 17:59 55.41495 37.90735 583 ft 0 kts 35°